Calls for Service

Disclaimer: This information is not intended to be used as official crime data. This program does not provide information about all crimes, and excludes specific incidents such as sexual assaults and child abuse. The City of Conway Police Department makes every effort to produce and publish current and accurate information. No warranties, expressed or implied, are provided for the data herein, its use, or its interpretation. The services provided are for informational purposes only and should not be relied on for any type of legal action.

Call Number Case Number Address Call Time Incident Type
26-0900001 2010 RICH SMITH LN September 1, 2026 12:06 am VEHICLE TOW
26-0809897 2823 COLLEGE AVE August 31, 2026 11:57 pm ATTEMPT TO CONTACT
26-0809896 836 WATKINS ST August 31, 2026 11:53 pm REPOSSESSION
26-0809894 1649 BRUCE ST August 31, 2026 11:46 pm TRESPASSING
26-0809888 300 BRUCE ST August 31, 2026 10:51 pm REPOSSESSION
26-0809887 277 HIGHWAY 64 E August 31, 2026 10:48 pm RECKLESS DRIVER
26-0809886 1126 MAIN ST August 31, 2026 10:39 pm VEHICLE TOW
26-0809885 799 HOGAN LN August 31, 2026 10:28 pm RECKLESS DRIVER
26-0809877 2210 KRYSTAL KREEK DR August 31, 2026 9:49 pm ASSIST FIRE
26-0809874 1116 GUM ST August 31, 2026 9:30 pm AGENCY ASSIST
26-0809870 1317 HIGHWAY 36 August 31, 2026 9:22 pm COMPUTER CRIMES
26-0809868 27 WILCOX RD August 31, 2026 9:10 pm SUSPICIOUS VEHICLE
26-0809866 487 HIGHWAY 365 August 31, 2026 8:50 pm RECKLESS DRIVER
26-0809864 104 HAWTHICKET RD August 31, 2026 8:46 pm TRESPASSING
26-0809863 1603 HARTJE LN August 31, 2026 8:46 pm CHECK ON THE WELFARE
26-0809859 2300 PRINCE ST August 31, 2026 8:38 pm ACCIDENT - PRIVATE PROPERTY
26-0809858 1740 S SALEM RD August 31, 2026 8:37 pm AGENCY ASSIST
26-0809856 2085 KEATHLEY DR August 31, 2026 8:34 pm LOUD NOISE-MUSIC
26-0809855 253 ROCKY POINT RD August 31, 2026 8:31 pm THEFT OF VEHICLE
26-0809851 26-0809851 1170 S AMITY RD August 31, 2026 8:12 pm INTOXICATED DRIVER
26-0809848 9 BRIERWOOD CIR August 31, 2026 8:00 pm CIVIL STAND BY
26-0809847 1518 HIGHWAY 65 N August 31, 2026 7:53 pm CRIMINAL MISCHIEF
26-0809846 207 WILLOW ST August 31, 2026 7:52 pm CITIZEN ASSIST
26-0809845 865 HIGHWAY 287 August 31, 2026 7:48 pm FIGHT
26-0809844 26-0809844 2840 DAVE WARD DR August 31, 2026 7:45 pm ASSAULT
26-0809843 1405 S DONAGHEY AVE August 31, 2026 7:45 pm DISTURBANCE
26-0809842 1750 APPALACHAIN DR August 31, 2026 7:40 pm CHECK ON THE WELFARE
26-0809841 26-0809841 701 1ST AVE August 31, 2026 7:39 pm CIVIL MATTER
26-0809840 321 ARKAVALLEY RD August 31, 2026 7:38 pm ATTEMPT TO CONTACT
26-0809837 207 WILLOW ST August 31, 2026 7:32 pm LOUD NOISE-MUSIC
26-0809835 2100 MUSEUM RD August 31, 2026 7:26 pm NO CONTACT ORDER VIOLATION
26-0809831 151 SOLOMON GROVE RD August 31, 2026 7:14 pm RECKLESS DRIVER
26-0809830 2099 DAVE WARD DR August 31, 2026 7:12 pm STALLED VEHICLE
26-0809828 599 E DAVE WARD DR August 31, 2026 7:09 pm RECKLESS DRIVER
26-0809827 241 S BROADVIEW August 31, 2026 7:09 pm CHECK ON THE WELFARE
26-0809825 20 GOLD LAKE CLUB RD August 31, 2026 7:00 pm ATTEMPT TO CONTACT
26-0809821 127 I40WB August 31, 2026 6:31 pm RECKLESS DRIVER
26-0809818 66 GOLD MINE SPRINGS RD August 31, 2026 6:23 pm HARASSMENT
26-0809817 550 SALEM RD August 31, 2026 6:18 pm TRESPASSING
26-0809814 26-0809814 1505 E OAK ST August 31, 2026 6:11 pm THEFT OF PROPERTY
26-0809813 17027 HIGHWAY 65 N August 31, 2026 5:58 pm RECKLESS DRIVER
26-0809810 3900 DAVE WARD DR August 31, 2026 5:40 pm SHOPLIFTING
26-0809809 1001 MCNUTT RD August 31, 2026 5:28 pm ATTEMPT TO CONTACT
26-0809808 380 HARKRIDER ST August 31, 2026 5:24 pm ENDANGERING WELFARE OF MINOR
26-0809805 2915 PEBBLE BEACH DR August 31, 2026 5:00 pm CITIZEN ASSIST
26-0809802 84 E CADRON RIDGE RD August 31, 2026 4:53 pm FRAUD
26-0809800 777 S EAST GERMAN LN August 31, 2026 4:47 pm ACCIDENT - PRIVATE PROPERTY
26-0809798 78 S CHURCH ST August 31, 2026 4:45 pm HARASSING COMMUNICATIONS
26-0809795 545 SKYLINE DR August 31, 2026 4:41 pm ACCIDENT - PROPERTY DAMAGE
26-0809794 1 ELLIOTT RD August 31, 2026 4:36 pm ACCIDENT - PROPERTY DAMAGE
26-0809793 1620 MIDDLE RD August 31, 2026 4:34 pm LOST CHILD
26-0809792 5 ASHBERRY CV August 31, 2026 4:32 pm UNKNOWN TROUBLE
26-0809791 3900 DAVE WARD DR August 31, 2026 4:29 pm ACCIDENT - PRIVATE PROPERTY
26-0809786 3895 FRIENDSHIP RD August 31, 2026 4:20 pm TRAFFIC PROBLEM-CONTROL
26-0809785 508 LOCUST AVE August 31, 2026 4:19 pm CHECK ON THE WELFARE
26-0809782 253 ROCKY POINT RD August 31, 2026 4:15 pm THEFT OF VEHICLE
26-0809781 1105 PRAIRIE ST August 31, 2026 4:11 pm ATTEMPT TO CONTACT
26-0809779 2099 DAVE WARD DR August 31, 2026 4:08 pm ACCIDENT - PROPERTY DAMAGE
26-0809777 15 CHURCH CIR August 31, 2026 3:59 pm HARASSMENT
26-0809769 18 GOLD LAKE CLUB RD August 31, 2026 3:26 pm ATTEMPT TO CONTACT
26-0809768 855 SALEM RD August 31, 2026 3:14 pm ATTEMPT TO CONTACT
26-0809766 500 S GERMAN LN August 31, 2026 3:08 pm FELONY WARRANT SERVICE
26-0809765 550 SKYLINE DR August 31, 2026 2:57 pm STALLED VEHICLE
26-0809763 727 S DONAGHEY AVE August 31, 2026 2:50 pm STALLED VEHICLE
26-0809761 199 SKYLINE DR August 31, 2026 2:48 pm ACCIDENT - PERSONAL INJURY
26-0809758 425 E DAVE WARD DR August 31, 2026 2:45 pm VEHICLE TOW
26-0809753 724 HARKRIDER ST August 31, 2026 2:38 pm TRAFFIC PROBLEM-CONTROL
26-0809750 801 ELSINGER BLVD August 31, 2026 2:35 pm ACCIDENT - PROPERTY DAMAGE
26-0809748 1105 PRAIRIE ST August 31, 2026 2:30 pm ATTEMPT TO CONTACT
26-0809747 26-0809747 1815 PRINCE ST August 31, 2026 2:29 pm TERRORISTIC THREATENING
26-0809745 705 4TH ST August 31, 2026 2:24 pm CHECK ON THE WELFARE
26-0809742 2700 CARL STUART ST August 31, 2026 2:17 pm CHECK ON THE WELFARE
26-0809741 89 ASHBERRY LN August 31, 2026 2:16 pm ATTEMPT TO CONTACT
26-0809737 2300 PRINCE ST August 31, 2026 2:02 pm TRAFFIC PROBLEM-CONTROL
26-0809736 22 S CHURCH ST August 31, 2026 2:02 pm ATTEMPT TO CONTACT
26-0809734 1616 WESTLAKE DR August 31, 2026 1:53 pm ATTEMPT TO CONTACT
26-0809733 1599 STANLEY RUSS RD August 31, 2026 1:47 pm ACCIDENT - PROPERTY DAMAGE
26-0809732 955 S GERMAN LN August 31, 2026 1:45 pm HARASSING COMMUNICATIONS
26-0809725 2150 HARKRIDER ST August 31, 2026 1:23 pm CITIZEN ASSIST
26-0809721 2225 PRINCE ST August 31, 2026 1:06 pm ACCIDENT - PRIVATE PROPERTY
26-0809720 215 LOWER RIDGE RD August 31, 2026 1:03 pm TRAFFIC PROBLEM-CONTROL
26-0809718 26-0809718 1815 PRINCE ST August 31, 2026 12:56 pm MINOR IN POSSESSION
26-0809717 3430 IRBY DR August 31, 2026 12:51 pm BREAKING OR ENTERING
26-0809713 26-0809713 1899 E OAK ST August 31, 2026 12:41 pm PROPERTY DAMAGE
26-0809711 670 HIGHWAY 65 N August 31, 2026 12:39 pm TRAFFIC PROBLEM-CONTROL
26-0809708 697 HIGHWAY 365 August 31, 2026 12:20 pm ROAD RAGE
26-0809707 1555 EXCHANGE AVE August 31, 2026 12:17 pm CHECK ON THE WELFARE
26-0809706 26-0809706 500 S GERMAN LN August 31, 2026 12:17 pm NO CONTACT ORDER VIOLATION
26-0809704 9 DAY LN August 31, 2026 12:13 pm ATTEMPT TO CONTACT
26-0809703 1105 PRAIRIE ST August 31, 2026 12:11 pm FOUND PROPERTY
26-0809702 10 DAWN DR E August 31, 2026 12:09 pm CIVIL MATTER
26-0809699 326 HIGHWAY 286 E August 31, 2026 11:47 am DOMESTIC DISTURBANCE
26-0809697 129 I40WB August 31, 2026 11:34 am RECKLESS DRIVER
26-0809695 126 I40WB August 31, 2026 11:27 am ACCIDENT - PROPERTY DAMAGE
26-0809694 899 E OAK ST August 31, 2026 11:26 am ACCIDENT - PROPERTY DAMAGE
26-0809693 2840 DAVE WARD DR August 31, 2026 11:18 am ATTEMPT TO CONTACT
26-0809686 1105 PRAIRIE ST August 31, 2026 10:33 am ATTEMPT TO CONTACT
26-0809683 26-0809683 1105 PRAIRIE ST August 31, 2026 10:24 am MISDEMEANOR WARRANT SERVICE
26-0809681 26-0809681 801 HOGAN LN August 31, 2026 10:19 am CRIMINAL MISCHIEF
26-0809680 1799 HIGHWAY 36 August 31, 2026 10:14 am TRAFFIC PROBLEM-CONTROL
26-0809676 127 I40WB August 31, 2026 10:06 am TRAFFIC PROBLEM-CONTROL
26-0809675 1616 WESTLAKE DR August 31, 2026 10:03 am ATTEMPT TO CONTACT
26-0809673 11 FOX LN August 31, 2026 9:53 am THEFT OF SERVICES
26-0809670 10 S NOWLIN LN August 31, 2026 9:34 am SHOTS FIRED
26-0809668 69 E WALKER RD August 31, 2026 9:32 am TERRORISTIC THREATENING
26-0809667 28 INTEGRITY LOOP August 31, 2026 9:32 am THEFT OF PROPERTY
26-0809666 177 PLANTATION DR August 31, 2026 9:24 am HARASSMENT
26-0809662 26-0809662 400 SALEM RD August 31, 2026 9:10 am SUPPLEMENT REPORT CALL
26-0809655 53 NORTH HILLS DR August 31, 2026 8:41 am ATTEMPT TO CONTACT
26-0809654 2420 MORSE DR August 31, 2026 8:41 am SUPPLEMENT REPORT CALL
26-0809653 73 ROBINSON RD August 31, 2026 8:35 am SUPPLEMENT REPORT CALL
26-0809652 26-0809652 311 OAK ST August 31, 2026 8:31 am THEFT OF PROPERTY
26-0809650 1601 S DONAGHEY AVE August 31, 2026 8:23 am ACCIDENT - PRIVATE PROPERTY
26-0809648 136 APPLEYARD RD August 31, 2026 8:23 am ATTEMPT TO CONTACT
26-0809645 73 FULLER RD August 31, 2026 8:16 am ATTEMPT TO CONTACT
26-0809642 12 S BOLDEN HILL RD August 31, 2026 8:11 am CHECK ON THE WELFARE
26-0809641 1105 PRAIRIE ST August 31, 2026 8:06 am ATTEMPT TO CONTACT
26-0809640 26-0809640 2220 RAINTREE DR August 31, 2026 8:05 am LOST CHILD
26-0809639 811 E OAK ST August 31, 2026 8:00 am ACCIDENT - PROPERTY DAMAGE
26-0809638 4 BANE LN August 31, 2026 8:00 am CITIZEN ASSIST
26-0809637 315 BAKER-WILLS PKWY August 31, 2026 7:59 am CHECK ON THE WELFARE
26-0809635 855 S SALEM RD August 31, 2026 7:45 am CHECK ON THE WELFARE
26-0809633 36 PLACE LN August 31, 2026 7:45 am CITIZEN ASSIST
26-0809631 799 CENTER ST August 31, 2026 7:37 am CHECKING PERSON
26-0809629 3435 BLACKSMITH DR August 31, 2026 7:30 am ATTEMPT TO CONTACT
26-0809628 500 S GERMAN LN August 31, 2026 7:06 am FELONY WARRANT SERVICE
26-0809622 45 BRIARWOOD ST August 31, 2026 5:52 am BURGLARY
26-0809621 77 HIDDEN VALLEY DR August 31, 2026 5:42 am SUPPLEMENT REPORT CALL
26-0809619 2840 DAVE WARD DR August 31, 2026 4:44 am ATTEMPT TO CONTACT
26-0809618 253 ROCKY POINT RD August 31, 2026 4:29 am ATTEMPT TO CONTACT
26-0809617 2840 DAVE WARD DR August 31, 2026 4:25 am ATTEMPT TO CONTACT
26-0809616 253 ROCKY POINT RD August 31, 2026 4:17 am DOMESTIC DISTURBANCE
26-0809604 354 HIGHWAY 64 E August 31, 2026 2:21 am CHECKING VEHICLE
26-0809602 89 BRIARWOOD ST August 31, 2026 2:11 am SUSPICIOUS ACTIVITY
26-0809597 53 BARHAM LOOP August 31, 2026 12:27 am SUSPICIOUS ACTIVITY
26-0809595 253 ROCKY POINT RD August 30, 2026 11:48 pm SUPPLEMENT REPORT CALL
26-0809592 26-0809592 235 FARRIS RD August 30, 2026 11:35 pm SHOTS FIRED
26-0809591 1375 THOMAS G WILSON DR August 30, 2026 11:33 pm CHECKING VEHICLE
26-0809587 2199 ADA AVE August 30, 2026 11:17 pm LOUD NOISE-MUSIC
26-0809584 2449 DAVE WARD DR August 30, 2026 11:09 pm RECKLESS DRIVER
26-0809580 134 HARKRIDER ST August 30, 2026 10:28 pm CHECKING PERSON
26-0809579 1320 S GERMAN LN August 30, 2026 10:21 pm STALLED VEHICLE
26-0809578 770 HIGHWAY 365 August 30, 2026 10:14 pm DISTURBANCE
26-0809577 253 ROCKY POINT RD August 30, 2026 10:08 pm PROPERTY DAMAGE
26-0809576 2665 DONAGHEY AVE August 30, 2026 10:07 pm CHECKING VEHICLE
26-0809573 1213 LINCOLN ST August 30, 2026 10:03 pm ACCIDENT - PRIVATE PROPERTY
26-0809571 300 S DONAGHEY AVE August 30, 2026 9:58 pm LOUD NOISE-MUSIC
26-0809568 1155 SKYLINE DR August 30, 2026 9:46 pm PARKING VIOLATION
26-0809567 150 S HOGAN LN August 30, 2026 9:46 pm ACCIDENT - PERSONAL INJURY
26-0809566 5001 DONNELL RIDGE RD August 30, 2026 9:42 pm TRESPASSING
26-0809564 1200 COVINGTON WAY August 30, 2026 9:36 pm FOUND PROPERTY
26-0809563 97 SOLOMON GROVE RD August 30, 2026 9:35 pm ATTEMPT TO CONTACT
26-0809558 39 WILSON FARM RD August 30, 2026 9:03 pm RECKLESS DRIVER
26-0809557 323 HIGHWAY 89 N August 30, 2026 9:02 pm RECKLESS DRIVER
26-0809556 7 BARBARA POINTE August 30, 2026 8:54 pm LOUD NOISE-MUSIC
26-0809555 220 HIGHWAY 124 W August 30, 2026 8:51 pm SUSPICIOUS VEHICLE
26-0809553 26-0809553 3900 DAVE WARD DR August 30, 2026 8:45 pm SHOPLIFTING
26-0809552 2 CENTER RD August 30, 2026 8:43 pm DISTURBANCE
26-0809551 26-0809551 1 CADRON SETTLEMENT PARK RD August 30, 2026 8:36 pm DISTURBANCE
26-0809550 2125 HARKRIDER ST August 30, 2026 8:35 pm TRESPASSING
26-0809549 401 2ND ST August 30, 2026 8:31 pm DISORDERLY CONDUCT
26-0809548 30 WHITE OAK RD August 30, 2026 8:28 pm SUPPLEMENT REPORT CALL
26-0809547 101 OAK ST August 30, 2026 8:22 pm SHOPLIFTING
26-0809546 162 PINNACLE SPRINGS RD August 30, 2026 8:20 pm THEFT OF SERVICES
26-0809545 2060 SHADOW FALLS DR August 30, 2026 8:15 pm BURGLARY
26-0809544 3 SCENIC ACRES TRL August 30, 2026 8:15 pm ATTEMPT TO CONTACT
26-0809543 17 WINDING BRANCH LN August 30, 2026 8:11 pm DOMESTIC DISTURBANCE
26-0809542 1030 WINEBERRY RD August 30, 2026 8:11 pm TRESPASSING
26-0809539 26-0809539 2840 DAVE WARD DR August 30, 2026 7:55 pm DISTURBANCE
26-0809538 26-0809538 1210 WILLIAM J CLARK DR August 30, 2026 7:49 pm CHECKING VEHICLE
26-0809536 97 SOLOMON GROVE RD August 30, 2026 7:42 pm ATTEMPT TO CONTACT
26-0809534 177 PLANTATION DR August 30, 2026 7:26 pm CIVIL MATTER
26-0809533 26-0809533 9 BRIERWOOD CIR August 30, 2026 7:01 pm UNKNOWN TROUBLE
26-0809532 1915 ERBACH ST August 30, 2026 6:59 pm ATTEMPT TO CONTACT
26-0809531 26-0809531 499 DONAGHEY AVE August 30, 2026 6:57 pm FLOCK ALERT
26-0809530 419 E OAK ST August 30, 2026 6:47 pm RECKLESS DRIVER
26-0809528 5001 DONNELL RIDGE RD August 30, 2026 6:44 pm TRESPASSING
26-0809526 3 VISTA TRL August 30, 2026 6:34 pm SUPPLEMENT REPORT CALL
26-0809525 1155 SKYLINE DR August 30, 2026 6:23 pm ASSIST FIRE
26-0809521 10 S NOWLIN LN August 30, 2026 6:12 pm SHOTS FIRED
26-0809518 100 BILL HEGEMAN BLVD August 30, 2026 6:04 pm ACCIDENT - PRIVATE PROPERTY
26-0809517 799 DONAGHEY AVE August 30, 2026 6:02 pm STALLED VEHICLE
26-0809515 1616 WESTLAKE DR August 30, 2026 5:41 pm ATTEMPT TO CONTACT
26-0809514 26-0809514 1161 OLD MORRILTON HIGHWAY August 30, 2026 5:32 pm BATTERY REPORT
26-0809513 26-0809513 14 WOODLAWN DR August 30, 2026 5:28 pm MISDEMEANOR WARRANT SERVICE
26-0809512 1083 S GERMAN LN August 30, 2026 5:26 pm STALLED VEHICLE
26-0809511 60 GREEN TIMBER WAY August 30, 2026 5:20 pm BATTERY REPORT
26-0809510 2699 OVERCUP DR August 30, 2026 5:08 pm ORDINANCE VIOLATION
26-0809509 2370 SANDERS ST August 30, 2026 5:04 pm FRAUD
26-0809503 2310 ROBINSON AVE August 30, 2026 4:43 pm DOMESTIC DISTURBANCE
26-0809499 330 HIGHWAY 285 N August 30, 2026 4:36 pm ACCIDENT - PROPERTY DAMAGE
26-0809496 3049 INTERSTATE 40 RAMP August 30, 2026 4:28 pm STALLED VEHICLE
26-0809492 2799 SALEM RD August 30, 2026 4:05 pm ATTEMPT TO CONTACT
26-0809490 801 LOCUST AVE August 30, 2026 3:52 pm ATTEMPT TO CONTACT
26-0809485 441 MOUNT NEBO RD August 30, 2026 3:32 pm ATTEMPT TO CONTACT
26-0809483 2480 OLD MORRILTON HIGHWAY August 30, 2026 3:23 pm STALLED VEHICLE
26-0809480 915 E OAK ST August 30, 2026 3:01 pm TRESPASSING
26-0809479 1250 S AMITY RD August 30, 2026 2:58 pm ACCIDENT - PRIVATE PROPERTY
26-0809475 100 BILL HEGEMAN BLVD August 30, 2026 2:47 pm ATTEMPT TO CONTACT
26-0809474 4 SARAHS PL August 30, 2026 2:47 pm ATTEMPT TO CONTACT
26-0809473 26-0809473 14 WOODLAWN DR August 30, 2026 2:45 pm BURGLARY
26-0809471 150 AMITY RD August 30, 2026 2:41 pm MISSING PERSON
26-0809469 199 SKYLINE DR August 30, 2026 2:38 pm ACCIDENT - PROPERTY DAMAGE
26-0809468 101 S BROADVIEW August 30, 2026 2:36 pm RECKLESS DRIVER
26-0809466 284 HIGHWAY 365 August 30, 2026 2:29 pm TRESPASSING
26-0809465 575 5TH AVE August 30, 2026 2:26 pm SUSPICIOUS ACTIVITY
26-0809463 1200 COVINGTON WAY August 30, 2026 2:13 pm DOMESTIC DISTURBANCE
26-0809462 1320 S GERMAN LN August 30, 2026 2:09 pm STALLED VEHICLE
26-0809461 26-0809461 999 EAST GERMAN LN August 30, 2026 2:05 pm ACCIDENT - HIT AND RUN
26-0809459 4535 RENFROW ST August 30, 2026 1:59 pm ATTEMPT TO CONTACT
26-0809458 26-0809458 2665 DONAGHEY AVE August 30, 2026 1:55 pm ATTEMPT TO CONTACT
26-0809457 26-0809457 2125 MORNING GLORY August 30, 2026 1:53 pm INTERFERENCE WITH CUSTODY
26-0809455 1040 KNOBLE DR August 30, 2026 1:45 pm ATTEMPT TO CONTACT
26-0809454 1250 S AMITY RD August 30, 2026 1:43 pm ACCIDENT - PRIVATE PROPERTY
26-0809453 801 LOCUST AVE August 30, 2026 1:41 pm ATTEMPT TO CONTACT
26-0809451 1622 WESTLAKE DR August 30, 2026 1:38 pm TRESPASSING
26-0809449 2585 DONAGHEY AVE August 30, 2026 1:29 pm RECKLESS DRIVER
26-0809448 2695 DAVE WARD DR August 30, 2026 1:28 pm HARASSING COMMUNICATIONS
26-0809442 2899 PRINCE ST August 30, 2026 1:04 pm STALLED VEHICLE
26-0809441 26-0809441 3050 PEBBLE BEACH DR August 30, 2026 12:59 pm PROPERTY DAMAGE
26-0809438 56 GREEN TIMBER WAY August 30, 2026 12:52 pm ASSIST FIRE
26-0809436 1155 SKYLINE DR August 30, 2026 12:49 pm CHECKING PERSON
26-0809435 97 SOLOMON GROVE RD August 30, 2026 12:26 pm ATTEMPT TO CONTACT
26-0809434 26-0809434 2695 DAVE WARD DR August 30, 2026 12:18 pm THEFT OF PROPERTY
26-0809433 26-0809433 100 BILL HEGEMAN BLVD August 30, 2026 12:14 pm DOMESTIC DISTURBANCE
26-0809430 7 N BOLDEN HILL RD August 30, 2026 12:00 pm INTERFERENCE WITH CUSTODY
26-0809429 707 HIGHWAY 365 August 30, 2026 11:59 am ASSIST FIRE
26-0809424 23 N COKER RD August 30, 2026 11:51 am 911 HANGUP CALL
26-0809420 2299 E OAK ST August 30, 2026 11:13 am RECKLESS DRIVER
26-0809419 26-0809419 2055 HARKRIDER ST August 30, 2026 11:06 am ACCIDENT - PROPERTY DAMAGE
26-0809418 1305 DAVE WARD DR August 30, 2026 10:58 am ENDANGERING WELFARE OF MINOR
26-0809417 2840 DAVE WARD DR August 30, 2026 10:57 am VEHICLE TOW
26-0809416 26-0809416 1616 WESTLAKE DR August 30, 2026 10:57 am THEFT OF PROPERTY
26-0809415 2825 FLOYD DR August 30, 2026 10:50 am 911 HANGUP CALL
26-0809414 2855 STONEWOOD DR August 30, 2026 10:50 am ACCIDENT - PROPERTY DAMAGE
26-0809413 1263 ROBINS ST August 30, 2026 10:47 am UNKNOWN TROUBLE
26-0809412 3 VISTA TRL August 30, 2026 10:43 am ATTEMPT TO CONTACT
26-0809410 26 CASH SPRINGS RD August 30, 2026 10:34 am AGENCY ASSIST
26-0809409 801 LOCUST AVE August 30, 2026 10:32 am ATTEMPT TO CONTACT
26-0809404 25 THIRD CIR August 30, 2026 10:11 am SUSPICIOUS PERSON
26-0809402 1505 DOGWOOD TRL August 30, 2026 9:48 am DOMESTIC DISTURBANCE
26-0809398 2 WHITE OAK DR August 30, 2026 9:36 am ATTEMPT TO CONTACT
26-0809397 163 ROUND MOUNTAIN RD August 30, 2026 9:33 am SUSPICIOUS VEHICLE
26-0809395 371 FARRIS RD August 30, 2026 9:21 am DISTURBANCE
26-0809392 1155 SKYLINE DR August 30, 2026 9:08 am ATTEMPT TO CONTACT
26-0809390 30 WHITE OAK RD August 30, 2026 8:47 am DOMESTIC DISTURBANCE
26-0809389 12 WILLIAMSBURG CT August 30, 2026 8:43 am ASSIST FIRE
26-0809387 1415 CHOATE ST August 30, 2026 8:42 am DOMESTIC DISTURBANCE
26-0809383 2 WHITE OAK DR August 30, 2026 8:35 am AGENCY ASSIST
26-0809382 361 HIGHWAY 64 E August 30, 2026 8:34 am TRAFFIC PROBLEM-CONTROL
26-0809380 1106 DONAGHEY AVE August 30, 2026 8:23 am DOMESTIC DISTURBANCE
26-0809378 1105 PRAIRIE ST August 30, 2026 8:09 am ATTEMPT TO CONTACT
26-0809373 1 ODELL DR August 30, 2026 7:44 am HARASSING COMMUNICATIONS
26-0809369 799 S EAST GERMAN LN August 30, 2026 6:15 am ABANDONED VEHICLE
26-0809368 3 VISTA TRL August 30, 2026 5:41 am CHECK ON THE WELFARE
26-0809367 77 HIDDEN VALLEY DR August 30, 2026 5:22 am THEFT OF PROPERTY
26-0809366 1105 PRAIRIE ST August 30, 2026 5:05 am RECOVERED PROPERTY
26-0809364 900 CRAIN DR August 30, 2026 3:43 am CHECKING VEHICLE
26-0809362 100 CONWAY BLVD August 30, 2026 3:27 am CHECKING PERSON
26-0809360 23 WOLF RUN TRL August 30, 2026 3:23 am REPOSSESSION
26-0809359 1600 WESTLAKE DR August 30, 2026 3:15 am CHECKING PERSON
26-0809358 124 I40WB August 30, 2026 3:15 am ACCIDENT - PROPERTY DAMAGE
26-0809355 189 MOUNT PLEASANT RD August 30, 2026 2:50 am 911 HANGUP CALL
26-0809354 399 SHAW ST August 30, 2026 2:48 am CHECKING PERSON
26-0809349 15 NARANS RD August 30, 2026 2:30 am ATTEMPT TO CONTACT
26-0809348 1400 HARKRIDER ST August 30, 2026 2:22 am CITIZEN ASSIST
26-0809344 44 N BROADVIEW August 30, 2026 2:09 am DISTURBANCE
26-0809339 26-0809339 3200 TYLER ST August 30, 2026 1:53 am CHECKING PERSON
26-0809338 545 SKYLINE DR August 30, 2026 1:52 am CHECKING VEHICLE
26-0809327 1895 E OAK ST August 30, 2026 1:21 am CHECKING VEHICLE
26-0809324 1105 PRAIRIE ST August 30, 2026 1:09 am FOUND PROPERTY
26-0809321 189 MOUNT PLEASANT RD August 30, 2026 12:59 am DOMESTIC DISTURBANCE
26-0809320 867 FENDLEY DR August 30, 2026 12:53 am LOUD NOISE-MUSIC
26-0809316 2990 BILLY JACK DR August 30, 2026 12:40 am DISTURBANCE
26-0809313 1470 ARAPAHO TRL August 30, 2026 12:34 am LOUD NOISE-MUSIC
26-0809312 1689 MIDDLE RD August 30, 2026 12:31 am LOUD NOISE-MUSIC
26-0809308 626 HIGHWAY 365 August 30, 2026 12:19 am CHECKING VEHICLE
26-0809306 3585 JAMES CT August 30, 2026 12:06 am ATTEMPT TO CONTACT
26-0809305 2490 SANDERS ST August 30, 2026 12:04 am CHECKING PERSON
26-0809304 26-0809304 1699 WASHINGTON AVE August 29, 2026 11:54 pm INTOXICATED PERSON
26-0809301 2055 HARKRIDER ST August 29, 2026 11:46 pm TRESPASSING
26-0809294 801 HOGAN LN August 29, 2026 11:31 pm SHOTS FIRED
26-0809288 600 ELSINGER BLVD August 29, 2026 11:16 pm CHECKING VEHICLE
26-0809280 129 I40EB August 29, 2026 10:54 pm CHECKING VEHICLE
26-0809278 1208 DAVIS ST August 29, 2026 10:46 pm LOUD NOISE-MUSIC
26-0809273 4930 STOCKTON RD August 29, 2026 10:25 pm CHECK ON THE WELFARE
26-0809270 4692 DAVE WARD DR August 29, 2026 10:20 pm PROPERTY DAMAGE
26-0809267 1470 ARAPAHO TRL August 29, 2026 10:16 pm LOUD NOISE-MUSIC
26-0809266 26 CRESTVIEW RD August 29, 2026 10:15 pm ATTEMPT TO CONTACT
26-0809263 26-0809263 500 S GERMAN LN August 29, 2026 10:11 pm MISDEMEANOR WARRANT SERVICE
26-0809257 15 NARANS RD August 29, 2026 10:00 pm DOMESTIC DISTURBANCE
26-0809256 26-0809256 1200 COVINGTON WAY August 29, 2026 9:58 pm DOMESTIC DISTURBANCE
26-0809250 127 I40EB August 29, 2026 9:50 pm CHECKING PERSON
26-0809249 801 ELSINGER BLVD August 29, 2026 9:50 pm CHECKING VEHICLE
26-0809247 89 ASHBERRY LN August 29, 2026 9:47 pm DISTURBANCE
26-0809244 16 EVE LN August 29, 2026 9:43 pm AGENCY ASSIST
26-0809242 1299 WATKINS ST August 29, 2026 9:41 pm SUSPICIOUS PERSON
26-0809240 601 ELSINGER BLVD August 29, 2026 9:40 pm CHECKING VEHICLE
26-0809239 1200 COVINGTON WAY August 29, 2026 9:39 pm SUSPICIOUS PERSON
26-0809238 26-0809238 2055 HARKRIDER ST August 29, 2026 9:38 pm ASSIST FIRE
26-0809232 2299 DAVE WARD DR August 29, 2026 9:26 pm ACCIDENT - PROPERTY DAMAGE
26-0809230 455 LOLLIE RD August 29, 2026 9:24 pm PROPERTY DAMAGE
26-0809228 2 WHISPERING OAKS August 29, 2026 9:23 pm DISTURBANCE
26-0809226 50 GREGORY DR August 29, 2026 9:18 pm CHECK ON THE WELFARE
26-0809224 22 STUDENT LN August 29, 2026 9:16 pm DISTURBANCE
26-0809223 600 5TH AVE August 29, 2026 9:15 pm LOUD NOISE-MUSIC
26-0809217 1470 ARAPAHO TRL August 29, 2026 9:04 pm LOUD NOISE-MUSIC
26-0809216 800 DAVE WARD DR August 29, 2026 9:03 pm RECKLESS DRIVER
26-0809214 415 S CENTER ST August 29, 2026 9:01 pm TRESPASSING
26-0809213 600 DAVE WARD DR August 29, 2026 8:56 pm STALLED VEHICLE
26-0809212 97 SOLOMON GROVE RD August 29, 2026 8:54 pm MISSING PERSON
26-0809210 1 NORTH AVE August 29, 2026 8:31 pm SHOTS FIRED
26-0809209 1620 WESTLAKE DR August 29, 2026 8:30 pm CHECK ON THE WELFARE
26-0809208 24 OAK BOWERY RD August 29, 2026 8:30 pm SHOTS FIRED
26-0809207 250 CENTRAL LANDING BLVD August 29, 2026 8:30 pm ATTEMPT TO CONTACT
26-0809206 1640 E OAK ST August 29, 2026 8:30 pm UNKNOWN TROUBLE
26-0809204 26-0809204 3715 PRINCE ST August 29, 2026 8:27 pm THEFT OF PROPERTY
26-0809203 2 PICKLES GAP RD August 29, 2026 8:26 pm TRESPASSING
26-0809201 1105 PRAIRIE ST August 29, 2026 8:24 pm SUPPLEMENT REPORT CALL
26-0809198 1105 PRAIRIE ST August 29, 2026 8:21 pm ATTEMPT TO CONTACT
26-0809196 400 6TH ST August 29, 2026 8:19 pm LOUD NOISE-MUSIC
26-0809195 86 GAPVIEW RD August 29, 2026 8:18 pm ATTEMPT TO CONTACT
26-0809186 1155 SKYLINE DR August 29, 2026 7:55 pm ATTEMPT TO CONTACT
26-0809184 440 HIGHWAY 107 S August 29, 2026 7:44 pm ASSIST FIRE
26-0809182 2310 RIDGEFIELD LN August 29, 2026 7:41 pm ATTEMPT TO CONTACT
26-0809177 26 PEBBLE BROOK DR August 29, 2026 7:29 pm CHECK ON THE WELFARE
26-0809172 33 E MAIN ST August 29, 2026 7:17 pm ATTEMPT TO CONTACT
26-0809171 2716 TIMBERPEG CT August 29, 2026 7:16 pm HARASSING COMMUNICATIONS
26-0809170 12 LAURA DR August 29, 2026 7:06 pm SHOTS FIRED
26-0809169 1208 DAVIS ST August 29, 2026 7:05 pm LOUD NOISE-MUSIC
26-0809167 323 S CENTER ST August 29, 2026 6:57 pm DOMESTIC DISTURBANCE
26-0809165 1520 E DAVE WARD DR August 29, 2026 6:48 pm ACCIDENT - PROPERTY DAMAGE
26-0809164 13 ROSEMOUNT DR August 29, 2026 6:45 pm LOUD NOISE-MUSIC
26-0809162 136 APPLEYARD RD August 29, 2026 6:40 pm ATTEMPT TO CONTACT
26-0809161 555 HIGHWAY 365 August 29, 2026 6:37 pm AGENCY ASSIST
26-0809159 2550 PRINCE ST August 29, 2026 6:31 pm STALLED VEHICLE
26-0809158 1305 DAVE WARD DR August 29, 2026 6:28 pm TRESPASSING
26-0809156 1155 SKYLINE DR August 29, 2026 6:27 pm PARKING VIOLATION
26-0809154 26-0809154 250 CENTRAL LANDING BLVD August 29, 2026 6:09 pm BATTERY REPORT
26-0809152 26-0809152 3045 PEBBLE BEACH DR August 29, 2026 6:04 pm FRAUD
26-0809151 705 4TH ST August 29, 2026 6:03 pm CHECK ON THE WELFARE
26-0809149 112 PICKLES GAP RD August 29, 2026 5:55 pm ACCIDENT - PROPERTY DAMAGE
26-0809148 26-0809148 899 S HARKRIDER DR August 29, 2026 5:53 pm INTOXICATED PERSON
26-0809147 1250 E DAVE WARD DR August 29, 2026 5:52 pm ACCIDENT - PROPERTY DAMAGE
26-0809145 1250 S AMITY RD August 29, 2026 5:42 pm CHECK ON THE WELFARE
26-0809143 26-0809143 1155 SKYLINE DR August 29, 2026 5:28 pm SHOPLIFTING
26-0809141 2010 RICH SMITH LN August 29, 2026 5:26 pm VEHICLE TOW
26-0809140 1155 SKYLINE DR August 29, 2026 5:23 pm CHECK ON THE WELFARE
26-0809139 45 SUNNY GAP RD August 29, 2026 5:23 pm ORDINANCE VIOLATION
26-0809137 3081 NAPA VALLEY DR August 29, 2026 5:08 pm DOMESTIC DISTURBANCE
26-0809133 8 LUCKY DR August 29, 2026 4:50 pm DOMESTIC DISTURBANCE
26-0809132 26-0809132 2015 RICH SMITH LN August 29, 2026 4:28 pm CRIMINAL MISCHIEF
26-0809128 475 ROBINS ST August 29, 2026 4:15 pm CHECK ON THE WELFARE
26-0809125 1773 HIGHWAY 64 E August 29, 2026 4:13 pm ACCIDENT - PERSONAL INJURY
26-0809124 1408 HIGHWAY 36 August 29, 2026 4:11 pm ATTEMPT TO CONTACT
26-0809122 801 LOCUST AVE August 29, 2026 4:03 pm ATTEMPT TO CONTACT
26-0809121 11 SPRINGHILL DR August 29, 2026 4:00 pm ATTEMPT TO CONTACT
26-0809120 700 SKYLINE DR August 29, 2026 3:46 pm CRIMINAL MISCHIEF
26-0809118 1001 COLLEGE AVE August 29, 2026 3:44 pm ACCIDENT - PROPERTY DAMAGE
26-0809115 801 LOCUST AVE August 29, 2026 3:32 pm ATTEMPT TO CONTACT
26-0809113 2499 CHARLIE DAYER DR August 29, 2026 3:28 pm CRIMINAL MISCHIEF
26-0809112 655 ELSINGER BLVD August 29, 2026 3:28 pm ACCIDENT - PRIVATE PROPERTY
26-0809108 1105 PRAIRIE ST August 29, 2026 3:18 pm MISSING PERSON
26-0809107 6 N BROADVIEW August 29, 2026 3:15 pm RECKLESS DRIVER
26-0809106 1600 E OAK ST August 29, 2026 3:13 pm RECKLESS DRIVER
26-0809105 281 PICKWICKET DR August 29, 2026 3:12 pm ATTEMPT TO CONTACT
26-0809104 199 E OAK ST August 29, 2026 3:04 pm ACCIDENT - PROPERTY DAMAGE
26-0809103 1555 EXCHANGE AVE August 29, 2026 2:47 pm ATTEMPT TO CONTACT
26-0809101 2899 DAVE WARD DR August 29, 2026 2:42 pm CHECK ON THE WELFARE
26-0809098 30 WHITE OAK RD August 29, 2026 2:36 pm ATTEMPT TO CONTACT
26-0809097 703 GROVE ST August 29, 2026 2:35 pm ATTEMPT TO CONTACT
26-0809093 1199 S AMITY RD August 29, 2026 2:21 pm ACCIDENT - HIT AND RUN
26-0809090 1170 PATS LN August 29, 2026 2:06 pm ATTEMPT TO CONTACT
26-0809089 26-0809089 3435 BLACKSMITH DR August 29, 2026 2:04 pm DOMESTIC DISTURBANCE
26-0809084 1179 SKYLINE DR August 29, 2026 1:59 pm RECKLESS DRIVER
26-0809081 708 OAK ST August 29, 2026 1:55 pm ACCIDENT - PRIVATE PROPERTY
26-0809075 1515 BEAN ST August 29, 2026 1:21 pm UNKNOWN TROUBLE
26-0809074 14 PEBBLE BROOK DR August 29, 2026 1:20 pm ACCIDENT - PROPERTY DAMAGE
26-0809073 26-0809073 1933 COLLEGE AVE August 29, 2026 1:17 pm HARASSMENT
26-0809068 1620 HIGHPOINT DR August 29, 2026 12:52 pm CHECKING VEHICLE
26-0809067 3955 RUPERT DR August 29, 2026 12:41 pm ATTEMPT TO CONTACT
26-0809066 1390 OLD MORRILTON HIGHWAY August 29, 2026 12:39 pm THEFT OF PROPERTY
26-0809065 808 FRONT ST August 29, 2026 12:11 pm ACCIDENT - PRIVATE PROPERTY
26-0809064 1105 PRAIRIE ST August 29, 2026 12:07 pm SUPPLEMENT REPORT CALL
26-0809063 8 HENRY LOOP August 29, 2026 12:04 pm ATTEMPT TO CONTACT
26-0809062 1170 PATS LN August 29, 2026 12:04 pm SUPPLEMENT REPORT CALL
26-0809060 1250 E DAVE WARD DR August 29, 2026 11:51 am ACCIDENT - PROPERTY DAMAGE
26-0809059 2 OVERLOOK TRL August 29, 2026 11:47 am TRAFFIC PROBLEM-CONTROL
26-0809056 835 S DONAGHEY AVE August 29, 2026 11:37 am ACCIDENT - PRIVATE PROPERTY
26-0809053 1050 ELLIS AVE August 29, 2026 11:23 am TRAFFIC PROBLEM-CONTROL
26-0809050 26-0809050 3100 IRBY DR August 29, 2026 10:59 am BREAKING OR ENTERING
26-0809046 1266 S AMITY RD August 29, 2026 10:43 am FRAUD
26-0809045 1030 SKYLINE DR August 29, 2026 10:41 am ACCIDENT - PROPERTY DAMAGE
26-0809038 849 SKYLINE DR August 29, 2026 10:20 am ATTEMPT TO CONTACT
26-0809032 361 MOUNT NEBO RD August 29, 2026 10:00 am DOMESTIC DISTURBANCE
26-0809030 2215 LOOKOUT AVE August 29, 2026 9:49 am CIVIL MATTER
26-0809029 1709 HARDY ST August 29, 2026 9:48 am LOUD NOISE-MUSIC
26-0809027 1501 ROBINS ST August 29, 2026 9:44 am ATTEMPT TO CONTACT
26-0809026 1090 SKYLINE DR August 29, 2026 9:40 am ASSIST FIRE
26-0809025 801 LOCUST AVE August 29, 2026 9:39 am ATTEMPT TO CONTACT
26-0809023 26-0809023 600 SKYLINE DR August 29, 2026 9:34 am NO CONTACT ORDER VIOLATION
26-0809022 284 HIGHWAY 365 August 29, 2026 9:34 am DISTURBANCE
26-0809013 252 ROCKY POINT RD August 29, 2026 8:30 am CHECK ON THE WELFARE
26-0809009 211 GARLAND SPRINGS RD August 29, 2026 8:18 am SUSPICIOUS ACTIVITY
26-0809005 1105 SKYLINE DR August 29, 2026 8:08 am CHECK ON THE WELFARE
26-0809004 620 2ND ST August 29, 2026 7:51 am UNKNOWN TROUBLE
26-0809002 9 RIDGE LN August 29, 2026 7:44 am DOMESTIC DISTURBANCE
26-0809001 8 COVEWOOD DR August 29, 2026 7:34 am REPOSSESSION
26-0808993 1773 HIGHWAY 64 E August 29, 2026 5:38 am ACCIDENT - PERSONAL INJURY
26-0808989 26-0808989 3815 DONNELL RIDGE RD August 29, 2026 4:20 am DOMESTIC DISTURBANCE
26-0808987 3815 DONNELL RIDGE RD August 29, 2026 3:46 am CHECKING VEHICLE
26-0808984 73 BRANDON DR August 29, 2026 3:09 am SUSPICIOUS ACTIVITY
26-0808983 1399 OLD MILITARY RD August 29, 2026 3:09 am CHECKING VEHICLE
26-0808981 4095 PRINCE ST August 29, 2026 2:51 am CHECKING VEHICLE
26-0808979 3430 IRBY DR August 29, 2026 2:33 am CHECKING VEHICLE
26-0808976 9 HANFORD LN August 29, 2026 1:52 am AGENCY ASSIST
26-0808972 1150 WINFIELD ST August 29, 2026 1:28 am CHECK ON THE WELFARE
26-0808970 801 ELSINGER BLVD August 29, 2026 1:13 am ATTEMPT TO CONTACT
26-0808966 399 DENISON ST August 29, 2026 1:06 am PARKING VIOLATION
26-0808964 375 DENISON ST August 29, 2026 1:05 am LOUD NOISE-MUSIC
26-0808963 3815 DONNELL RIDGE RD August 29, 2026 1:02 am CHECK ON THE WELFARE
26-0808962 140 CHAPEL CREEK DR August 29, 2026 12:58 am CHECK ON THE WELFARE
26-0808961 375 DENISON ST August 29, 2026 12:53 am LOUD NOISE-MUSIC
26-0808959 530 S DONAGHEY AVE August 29, 2026 12:44 am HARASSMENT
26-0808957 550 SKYLINE DR August 29, 2026 12:35 am CHECK ON THE WELFARE
26-0808956 1025 ROCKWELL DR August 29, 2026 12:35 am DOMESTIC DISTURBANCE
26-0808951 3555 TUSCARORA DR August 29, 2026 12:11 am SUSPICIOUS ACTIVITY
26-0808950 8 HENRY LOOP August 29, 2026 12:09 am ATTEMPT TO CONTACT
26-0808947 160 CHAPEL CREEK DR August 29, 2026 12:02 am LOUD NOISE-MUSIC
26-0808946 1953 TORREYSON ST August 28, 2026 11:59 pm LOUD NOISE-MUSIC
26-0808945 93 CARROLL RD August 28, 2026 11:56 pm SHOTS FIRED
26-0808943 810 E SIEBENMORGEN RD August 28, 2026 11:50 pm STALLED VEHICLE
26-0808942 399 HIGHWAY 89 S August 28, 2026 11:49 pm CHECKING VEHICLE
26-0808938 130 I40EB August 28, 2026 11:34 pm TRAFFIC PROBLEM-CONTROL
26-0808934 12 WHITE OAK DR August 28, 2026 11:19 pm UNKNOWN TROUBLE
26-0808933 2099 COLLEGE AVE August 28, 2026 11:16 pm LOUD NOISE-MUSIC
26-0808929 1895 E OAK ST August 28, 2026 11:12 pm CHECKING VEHICLE
26-0808927 2840 DAVE WARD DR August 28, 2026 11:06 pm CHECKING PERSON
26-0808924 400 SALEM RD August 28, 2026 10:48 pm ACCIDENT - HIT AND RUN
26-0808922 6165 DAVE WARD DR August 28, 2026 10:45 pm CHECKING VEHICLE
26-0808921 12 LOWER RIDGE RD August 28, 2026 10:43 pm CHECKING PERSON
26-0808912 2890 DAVE WARD DR August 28, 2026 10:20 pm CHECKING VEHICLE
26-0808911 268 HIGHWAY 65 N August 28, 2026 10:19 pm SUSPICIOUS PERSON
26-0808904 1 MAYOR LN August 28, 2026 10:04 pm ACCIDENT - PROPERTY DAMAGE
26-0808900 1201 DONAGHEY AVE August 28, 2026 10:00 pm CHECKING VEHICLE
26-0808896 1105 PRAIRIE ST August 28, 2026 9:53 pm ATTEMPT TO CONTACT
26-0808895 26-0808895 2490 SANDERS ST August 28, 2026 9:50 pm TRESPASSING
26-0808879 1440 DAVE WARD DR August 28, 2026 9:13 pm CHECKING PERSON
26-0808878 600 GRANDVIEW HEIGHTS DR August 28, 2026 9:07 pm CHECK ON THE WELFARE
26-0808874 601 ELSINGER BLVD August 28, 2026 8:55 pm LOITERING
26-0808873 1 HIGHWAY 36 August 28, 2026 8:49 pm RECKLESS DRIVER
26-0808872 17 N MADRID DR August 28, 2026 8:49 pm ATTEMPT TO CONTACT
26-0808870 2199 PRINCE ST August 28, 2026 8:48 pm RECKLESS DRIVER
26-0808864 1352 WATKINS ST August 28, 2026 8:33 pm ATTEMPT TO CONTACT
26-0808863 2695 DAVE WARD DR August 28, 2026 8:33 pm CIVIL STAND BY
26-0808861 173 HIGHWAY 365 August 28, 2026 8:29 pm CHECKING VEHICLE
26-0808859 26-0808859 3900 DAVE WARD DR August 28, 2026 8:28 pm FOUND PROPERTY
26-0808853 26-0808853 1305 E OAK ST August 28, 2026 8:10 pm CHECKING PERSON
26-0808850 1405 S DONAGHEY AVE August 28, 2026 8:04 pm CHECKING VEHICLE
26-0808845 26-0808845 1032 CLIFTON ST August 28, 2026 7:50 pm BREAKING OR ENTERING
26-0808844 601 ELSINGER BLVD August 28, 2026 7:49 pm RECKLESS DRIVER
26-0808843 1430 STORIE DR August 28, 2026 7:48 pm RECKLESS DRIVER
26-0808839 1105 PRAIRIE ST August 28, 2026 7:41 pm ATTEMPT TO CONTACT
26-0808838 419 E OAK ST August 28, 2026 7:39 pm STALLED VEHICLE
26-0808836 475 ROBINS ST August 28, 2026 7:04 pm ACCIDENT - PRIVATE PROPERTY
26-0808834 200 EXCHANGE AVE August 28, 2026 7:03 pm OPEN DOOR/WINDOW/FENCE
26-0808831 77 HEFFINGTON CEMETERY RD August 28, 2026 6:57 pm ATTEMPT TO CONTACT
26-0808830 1155 SKYLINE DR August 28, 2026 6:57 pm SHOPLIFTING
26-0808828 899 EXCHANGE AVE August 28, 2026 6:44 pm ACCIDENT - PROPERTY DAMAGE
26-0808826 1710 S AMITY RD August 28, 2026 6:40 pm FOUND PROPERTY
26-0808825 39 YOUNG LN August 28, 2026 6:31 pm DOMESTIC DISTURBANCE
26-0808822 3250 JW AND PAT BROWN BLVD August 28, 2026 6:25 pm CHECKING VEHICLE
26-0808821 3289 OLD MORRILTON HIGHWAY August 28, 2026 6:23 pm ABANDONED VEHICLE
26-0808816 101 OAK ST August 28, 2026 6:05 pm SUSPICIOUS ACTIVITY
26-0808814 2 EAGLE NEST CV August 28, 2026 6:01 pm MISSING PERSON
26-0808812 1570 SAGEGRASS RD August 28, 2026 5:54 pm CIVIL STAND BY
26-0808808 515 E 6TH ST August 28, 2026 5:42 pm ACCIDENT - PROPERTY DAMAGE
26-0808803 2695 DAVE WARD DR August 28, 2026 5:19 pm TRESPASSING
26-0808801 1090 SKYLINE DR August 28, 2026 5:15 pm DISTURBANCE
26-0808800 135 I40EB August 28, 2026 5:14 pm TRAFFIC PROBLEM-CONTROL
26-0808799 1075 GALLERY DR August 28, 2026 4:58 pm SUSPICIOUS VEHICLE
26-0808794 1199 STEEL AVE August 28, 2026 4:40 pm ACCIDENT - PROPERTY DAMAGE
26-0808792 1 TERRACONWAY DR August 28, 2026 4:26 pm ACCIDENT - PROPERTY DAMAGE
26-0808791 801 LOCUST AVE August 28, 2026 4:24 pm AGENCY ASSIST
26-0808790 1065 WINEBERRY RD August 28, 2026 4:18 pm HARASSING COMMUNICATIONS
26-0808787 999 EAST GERMAN LN August 28, 2026 4:18 pm STALLED VEHICLE
26-0808784 26-0808784 2550 PRINCE ST August 28, 2026 4:03 pm SHOPLIFTING
26-0808781 2899 TYLER ST August 28, 2026 4:00 pm ACCIDENT - PERSONAL INJURY
26-0808779 1799 CALDWELL ST August 28, 2026 3:53 pm RECKLESS DRIVER
26-0808778 1199 E DAVE WARD DR August 28, 2026 3:50 pm ACCIDENT - PROPERTY DAMAGE
26-0808776 1965 CLARK'S DR August 28, 2026 3:48 pm ATTEMPT TO CONTACT
26-0808774 3196 COLLEGE AVE August 28, 2026 3:43 pm ACCIDENT - PROPERTY DAMAGE
26-0808772 620 INGRAM VILLAGE DR August 28, 2026 3:40 pm SUSPICIOUS ACTIVITY
26-0808769 26-0808769 501 2ND AVE August 28, 2026 3:34 pm ATTEMPT TO CONTACT
26-0808766 74 LEONARD LOOP August 28, 2026 3:27 pm ATTEMPT TO CONTACT
26-0808764 39 FOOTHILL DR August 28, 2026 3:22 pm AGENCY ASSIST
26-0808761 2420 MORSE DR August 28, 2026 3:12 pm SUPPLEMENT REPORT CALL
26-0808757 125 CENTER ST August 28, 2026 3:10 pm ENDANGERING WELFARE OF MINOR
26-0808753 403 HIGHWAY 64 E August 28, 2026 2:56 pm STALLED VEHICLE
26-0808752 150 SKYLINE DR August 28, 2026 2:49 pm DOMESTIC DISTURBANCE
26-0808751 600 5TH AVE August 28, 2026 2:46 pm SUSPICIOUS ACTIVITY
26-0808746 1525 CLIFTON ST August 28, 2026 2:34 pm CIVIL MATTER
26-0808745 26-0808745 955 S GERMAN LN August 28, 2026 2:34 pm ATTEMPT TO CONTACT
26-0808743 26-0808743 421 1ST AVE August 28, 2026 2:26 pm ATTEMPT TO CONTACT
26-0808742 801 LOCUST AVE August 28, 2026 2:14 pm AGENCY ASSIST
26-0808739 1301 E DAVE WARD DR August 28, 2026 2:01 pm CITIZEN ASSIST
26-0808738 68 HIGHWAY 36 August 28, 2026 1:55 pm ATTEMPT TO CONTACT
26-0808737 2302 COLLEGE AVE August 28, 2026 1:50 pm ACCIDENT - PRIVATE PROPERTY
26-0808734 913 FRONT ST August 28, 2026 1:46 pm ATTEMPT TO CONTACT
26-0808732 32 SAGEWOOD DR August 28, 2026 1:35 pm BREAKING OR ENTERING
26-0808731 913 FRONT ST August 28, 2026 1:25 pm HARASSING COMMUNICATIONS
26-0808729 3430 IRBY DR August 28, 2026 1:14 pm CHECK ON THE WELFARE
26-0808726 26-0808726 3430 IRBY DR August 28, 2026 1:11 pm HARASSMENT
26-0808725 600 EXPO BLVD August 28, 2026 12:46 pm ACCIDENT - HIT AND RUN
26-0808724 1399 DONAGHEY AVE August 28, 2026 12:41 pm CHECKING PERSON
26-0808719 299 SPRINGFIELD RD August 28, 2026 12:33 pm CHECKING VEHICLE
26-0808717 26-0808717 2200 WASHINGTON AVE August 28, 2026 12:30 pm CHECKING PERSON
26-0808716 1105 PRAIRIE ST August 28, 2026 12:27 pm ATTEMPT TO CONTACT
26-0808714 650 DAVE WARD DR August 28, 2026 12:25 pm ACCIDENT - PROPERTY DAMAGE
26-0808713 899 MILL ST August 28, 2026 12:04 pm ACCIDENT - PROPERTY DAMAGE
26-0808712 1124 CLIFTON ST August 28, 2026 11:59 am AGENCY ASSIST
26-0808710 135 I40WB August 28, 2026 11:43 am RECKLESS DRIVER
26-0808709 2661 DONAGHEY AVE August 28, 2026 11:41 am STALLED VEHICLE
26-0808707 495 HOGAN LN August 28, 2026 11:40 am ACCIDENT - PERSONAL INJURY
26-0808705 3289 OLD MORRILTON HIGHWAY August 28, 2026 11:38 am ABANDONED VEHICLE
26-0808704 26-0808704 949 SKYLINE DR August 28, 2026 11:36 am CHECKING PERSON
26-0808703 200 S HARKRIDER DR August 28, 2026 11:34 am FOUND PROPERTY
26-0808702 1 ARKAVALLEY RD August 28, 2026 11:31 am RECKLESS DRIVER
26-0808701 26-0808701 820 BILL DEAN DR August 28, 2026 11:30 am THEFT OF VEHICLE
26-0808698 1 PLANTATION DR August 28, 2026 11:22 am RECKLESS DRIVER
26-0808696 2109 E OAK ST August 28, 2026 11:01 am ACCIDENT - PROPERTY DAMAGE
26-0808695 1555 EXCHANGE AVE August 28, 2026 10:57 am CHECK ON THE WELFARE
26-0808694 26-0808694 80 EXCHANGE AVE August 28, 2026 10:55 am THEFT OF PROPERTY
26-0808693 132 I40WB August 28, 2026 10:48 am RECKLESS DRIVER
26-0808692 127 BALLARD RD August 28, 2026 10:48 am CIVIL STAND BY
26-0808689 1145 HUNTER ST August 28, 2026 10:42 am ACCIDENT - PERSONAL INJURY
26-0808687 1869 HUTTO ST August 28, 2026 10:39 am CITIZEN ASSIST
26-0808685 26-0808685 1200 THOMAS G WILSON DR August 28, 2026 10:34 am PROPERTY DAMAGE
26-0808681 26-0808681 3815 DONNELL RIDGE RD August 28, 2026 10:16 am TERRORISTIC THREATENING
26-0808679 127 I40EB August 28, 2026 10:13 am CHECKING PERSON
26-0808678 700 SKYLINE DR August 28, 2026 10:03 am ATTEMPT TO CONTACT
26-0808676 5021 TYLER ST August 28, 2026 9:59 am CITIZEN ASSIST
26-0808675 125 I40WB August 28, 2026 9:54 am AGENCY ASSIST
26-0808674 5599 TYLER ST August 28, 2026 9:54 am CHECKING PERSON
26-0808673 2235 DAVE WARD DR August 28, 2026 9:53 am ATTEMPT TO CONTACT
26-0808672 125 I40EB August 28, 2026 9:49 am AGENCY ASSIST
26-0808670 225 VINE ST August 28, 2026 9:46 am ASSAULT
26-0808667 1105 PRAIRIE ST August 28, 2026 9:42 am ATTEMPT TO CONTACT
26-0808665 2085 KEATHLEY DR August 28, 2026 9:29 am AGENCY ASSIST
26-0808663 2070 KEATHLEY DR August 28, 2026 9:23 am AGENCY ASSIST
26-0808660 452 STURGIS RD August 28, 2026 9:15 am ILLEGAL DUMPING
26-0808659 324 S GERMAN LN August 28, 2026 9:11 am AGENCY ASSIST
26-0808657 26-0808657 670 S HOGAN LN August 28, 2026 8:59 am TERRORISTIC THREATENING
26-0808656 7 CHESTER CV August 28, 2026 8:57 am ATTEMPT TO CONTACT
26-0808655 801 LOCUST AVE August 28, 2026 8:56 am ATTEMPT TO CONTACT
26-0808653 5 7TH ST August 28, 2026 8:54 am ATTEMPT TO CONTACT
26-0808652 26-0808652 1 STUDENT LN August 28, 2026 8:54 am ATTEMPT TO CONTACT
26-0808649 300 S DONAGHEY AVE August 28, 2026 8:42 am ATTEMPT TO CONTACT
26-0808648 152 NIAGRA FALLS August 28, 2026 8:42 am REPOSSESSION
26-0808647 960 LOCUST AVE August 28, 2026 8:41 am HARASSING COMMUNICATIONS
26-0808645 26-0808645 1440 BYRON DR August 28, 2026 8:36 am FRAUD
26-0808642 1600 BILL LUCY DR August 28, 2026 8:02 am CITIZEN ASSIST
26-0808640 26-0808640 1410 HARTJE LN August 28, 2026 7:57 am DOMESTIC DISTURBANCE
26-0808637 1109 E OAK ST August 28, 2026 7:55 am TRAFFIC LIGHT PROBLEM
26-0808634 29 LIBERTY CREEK RD August 28, 2026 7:30 am SUSPICIOUS ACTIVITY
26-0808632 14 SCENIC PT August 28, 2026 7:24 am ABANDONED VEHICLE
26-0808630 2 QUALLS RD August 28, 2026 7:18 am ATTEMPT TO CONTACT
26-0808627 26-0808627 3815 DONNELL RIDGE RD August 28, 2026 6:45 am RUNAWAY
26-0808619 272 LINDER RD August 28, 2026 5:30 am ATTEMPT TO CONTACT
26-0808618 1169 E DAVE WARD DR August 28, 2026 5:22 am ACCIDENT - PROPERTY DAMAGE
26-0808615 128 I40EB August 28, 2026 4:36 am ACCIDENT - PROPERTY DAMAGE
26-0808612 801 LOCUST AVE August 28, 2026 4:04 am ATTEMPT TO CONTACT
26-0808608 239 HIGHWAY 287 August 28, 2026 3:38 am PURSUIT
26-0808607 26-0808607 2302 COLLEGE AVE August 28, 2026 2:48 am ASSAULT
26-0808605 2890 DAVE WARD DR August 28, 2026 2:30 am LOUD NOISE-MUSIC
26-0808604 46 N MADRID DR August 28, 2026 2:15 am 911 HANGUP CALL
26-0808602 309 MILL POND RD August 28, 2026 1:50 am CHECK ON THE WELFARE
26-0808600 308 HELEN ST August 28, 2026 12:53 am HARASSING COMMUNICATIONS
26-0808599 545 SKYLINE DR August 28, 2026 12:53 am CITIZEN ASSIST
26-0808596 1516 CALDWELL ST August 28, 2026 12:45 am ATTEMPT TO CONTACT
26-0808594 77 FLAG POND RD August 28, 2026 12:14 am PROWLER
26-0808593 1025 ROCKWELL DR August 28, 2026 12:12 am ASSIST FIRE
26-0808591 1002 SAMANTHA DR August 28, 2026 12:03 am STALLED VEHICLE
26-0808590 2260 SANDERS ST August 27, 2026 11:47 pm ACCIDENT - PRIVATE PROPERTY
26-0808589 15 EVELYN LN August 27, 2026 11:46 pm DOMESTIC DISTURBANCE
26-0808588 2310 ROBINSON AVE August 27, 2026 11:32 pm LOG VEHICLE
26-0808587 1105 PRAIRIE ST August 27, 2026 11:29 pm ATTEMPT TO CONTACT
26-0808585 2310 ROBINSON AVE August 27, 2026 11:23 pm CHECKING VEHICLE
26-0808577 3100 IRBY DR August 27, 2026 10:52 pm DOMESTIC DISTURBANCE
26-0808574 619 5TH AVE August 27, 2026 10:48 pm CITIZEN ASSIST
26-0808571 835 S DONAGHEY AVE August 27, 2026 10:31 pm VEHICLE TOW
26-0808569 835 S DONAGHEY AVE August 27, 2026 10:29 pm VEHICLE TOW
26-0808568 4629 OLD MORRILTON HIGHWAY August 27, 2026 10:26 pm 911 HANGUP CALL
26-0808567 2840 DAVE WARD DR August 27, 2026 10:21 pm ATTEMPT TO CONTACT
26-0808565 260 HIGHWAY 25 N August 27, 2026 10:12 pm 911 HANGUP CALL
26-0808564 1979 BLACKBERRY LN August 27, 2026 9:57 pm AGENCY ASSIST
26-0808560 2730 DAVE WARD DR August 27, 2026 9:50 pm SUSPICIOUS ACTIVITY
26-0808556 801 LOCUST AVE August 27, 2026 9:26 pm ATTEMPT TO CONTACT
26-0808553 835 S DONAGHEY AVE August 27, 2026 9:24 pm VEHICLE TOW
26-0808551 835 S DONAGHEY AVE August 27, 2026 9:23 pm VEHICLE TOW
26-0808550 3170 ROBERT OTT CIR August 27, 2026 9:07 pm ATTEMPT TO CONTACT
26-0808549 26-0808549 2460 SHARPE CIR August 27, 2026 9:01 pm ASSIST FIRE
26-0808545 1301 CLIFTON ST August 27, 2026 8:40 pm ATTEMPT TO CONTACT
26-0808544 500 S GERMAN LN August 27, 2026 8:39 pm ATTEMPT TO CONTACT
26-0808543 35 LOST VALLEY RD August 27, 2026 8:36 pm DISTURBANCE
26-0808542 26-0808542 1111 MAIN ST August 27, 2026 8:30 pm CHECKING PERSON
26-0808541 26-0808541 831 NUTTERS CHAPEL RD August 27, 2026 8:26 pm CHECK ON THE WELFARE
26-0808534 1555 EXCHANGE AVE August 27, 2026 7:56 pm CHECK ON THE WELFARE
26-0808532 384 HIGHWAY 65 N August 27, 2026 7:46 pm RECKLESS DRIVER
26-0808531 7 CHESTER CV August 27, 2026 7:45 pm DOMESTIC DISTURBANCE
26-0808528 569 HIGHWAY 65 N August 27, 2026 7:35 pm ROAD RAGE
26-0808526 33 GOLD LAKE CLUB RD August 27, 2026 7:24 pm ATTEMPT TO CONTACT
26-0808524 350 E OAK ST August 27, 2026 7:18 pm RECKLESS DRIVER
26-0808523 110 E 6TH ST August 27, 2026 7:09 pm THEFT OF PROPERTY
26-0808522 400 HIGHWAY 124 W August 27, 2026 6:56 pm CHECK ON THE WELFARE
26-0808521 1304 COLLIER DR August 27, 2026 6:54 pm ATTEMPT TO CONTACT
26-0808517 26-0808517 500 S GERMAN LN August 27, 2026 6:45 pm MISDEMEANOR WARRANT SERVICE
26-0808512 736 POLK ST August 27, 2026 6:35 pm ACCIDENT - PROPERTY DAMAGE
26-0808511 1440 DAVE WARD DR August 27, 2026 6:24 pm ATTEMPT TO CONTACT
26-0808510 1120 E OAK ST August 27, 2026 6:20 pm ACCIDENT - PRIVATE PROPERTY
26-0808508 1099 BROOKSIDE DR August 27, 2026 6:19 pm CHECKING VEHICLE
26-0808507 3170 ROBERT OTT CIR August 27, 2026 6:15 pm ATTEMPT TO CONTACT
26-0808506 1 RAGLAND DR August 27, 2026 6:14 pm ACCIDENT - PROPERTY DAMAGE
26-0808503 401 2ND ST August 27, 2026 5:59 pm DISTURBANCE
26-0808501 3405 APPOMATTOX DR August 27, 2026 5:52 pm ORDINANCE VIOLATION
26-0808499 7 CHESTER CV August 27, 2026 5:45 pm ATTEMPT TO CONTACT
26-0808498 199 COMMERCE RD August 27, 2026 5:43 pm STALLED VEHICLE
26-0808497 1003 MUSEUM RD August 27, 2026 5:42 pm STALLED VEHICLE
26-0808496 5 7TH ST August 27, 2026 5:35 pm ATTEMPT TO CONTACT
26-0808495 11 OAKDALE DR August 27, 2026 5:35 pm CHECKING PERSON
26-0808494 466 BLAIR RD August 27, 2026 5:33 pm CHECK ON THE WELFARE
26-0808491 75 S BROADVIEW August 27, 2026 5:20 pm ACCIDENT - PRIVATE PROPERTY
26-0808490 3800 HIGHWAY 25 August 27, 2026 5:19 pm ACCIDENT - PROPERTY DAMAGE
26-0808489 707 ROBINS ST August 27, 2026 5:15 pm ACCIDENT - PRIVATE PROPERTY
26-0808487 215 FARRIS RD August 27, 2026 5:04 pm BREAKING OR ENTERING
26-0808486 59 TOWER RD August 27, 2026 5:02 pm ROAD RAGE
26-0808484 1030 SKYLINE DR August 27, 2026 4:51 pm ACCIDENT - PROPERTY DAMAGE
26-0808483 26-0808483 1355 S HARKRIDER DR August 27, 2026 4:48 pm THEFT OF PROPERTY
26-0808482 1100 OLD MORRILTON HIGHWAY August 27, 2026 4:43 pm CHECK ON THE WELFARE
26-0808479 1105 PRAIRIE ST August 27, 2026 4:36 pm ATTEMPT TO CONTACT
26-0808478 280 LINDER RD August 27, 2026 4:35 pm SUSPICIOUS VEHICLE
26-0808477 1555 EXCHANGE AVE August 27, 2026 4:34 pm AGENCY ASSIST
26-0808476 127 I40WB August 27, 2026 4:26 pm CHECK ON THE WELFARE
26-0808475 1155 FRONT ST August 27, 2026 4:26 pm ACCIDENT - PERSONAL INJURY
26-0808473 625 TOMMY LEWIS DR August 27, 2026 4:23 pm ASSIST FIRE
26-0808471 28 E SKYLINE DR August 27, 2026 4:21 pm ORDINANCE VIOLATION
26-0808470 213 LOCUST AVE August 27, 2026 4:20 pm ATTEMPT TO CONTACT
26-0808468 410 ELSINGER BLVD August 27, 2026 4:17 pm ACCIDENT - PRIVATE PROPERTY
26-0808465 26-0808465 201 SKYLINE DR August 27, 2026 4:08 pm SHOPLIFTING
26-0808464 875 SKYLINE DR August 27, 2026 4:06 pm ACCIDENT - PROPERTY DAMAGE
26-0808463 450 BRANNON RD August 27, 2026 4:03 pm RECKLESS DRIVER
26-0808462 129 I40WB August 27, 2026 4:03 pm ACCIDENT - PERSONAL INJURY
26-0808459 1 E PLEASANT VALLEY RD August 27, 2026 4:01 pm TRAFFIC PROBLEM-CONTROL
26-0808458 150 AMITY RD August 27, 2026 4:00 pm TRAFFIC PROBLEM-CONTROL
26-0808456 1151 SKYLINE DR August 27, 2026 3:56 pm ACCIDENT - PROPERTY DAMAGE
26-0808455 600 S AMITY RD August 27, 2026 3:55 pm RECKLESS DRIVER
26-0808454 1 SIDEBOTTOM RD August 27, 2026 3:44 pm ATTEMPT TO CONTACT
26-0808453 1298 HIGHWAY 64 E August 27, 2026 3:32 pm TRAFFIC PROBLEM-CONTROL
26-0808451 1129 E SIEBENMORGEN RD August 27, 2026 3:25 pm ACCIDENT - PROPERTY DAMAGE
26-0808449 125 I40WB August 27, 2026 3:21 pm ACCIDENT - PERSONAL INJURY
26-0808448 124 I40WB August 27, 2026 3:21 pm ACCIDENT - PERSONAL INJURY
26-0808445 545 SKYLINE DR August 27, 2026 3:10 pm CITIZEN ASSIST
26-0808441 218 ROOSTER RD August 27, 2026 3:05 pm ACCIDENT - PROPERTY DAMAGE
26-0808439 3595 PRINCE ST August 27, 2026 3:02 pm ACCIDENT - PROPERTY DAMAGE
26-0808435 26-0808435 500 S GERMAN LN August 27, 2026 2:50 pm MISDEMEANOR WARRANT SERVICE
26-0808434 1755 RADEN ST August 27, 2026 2:47 pm CIVIL MATTER
26-0808433 500 S GERMAN LN August 27, 2026 2:46 pm FELONY WARRANT SERVICE
26-0808432 26-0808432 2420 MORSE DR August 27, 2026 2:42 pm HARASSMENT
26-0808431 1155 SKYLINE DR August 27, 2026 2:41 pm CIVIL MATTER
26-0808427 1627 E OAK ST August 27, 2026 2:28 pm TRESPASSING
26-0808426 42 VALLEY ESTATES LOOP August 27, 2026 2:24 pm THEFT OF VEHICLE
26-0808424 1908 CREEKWOOD DR August 27, 2026 2:14 pm CIVIL STAND BY
26-0808422 2425 DAVE WARD DR August 27, 2026 2:12 pm INTOXICATED PERSON
26-0808414 74 LEONARD LOOP August 27, 2026 1:40 pm ATTEMPT TO CONTACT
26-0808411 425 W 6TH ST August 27, 2026 1:20 pm CIVIL MATTER
26-0808410 205 OAK ST August 27, 2026 1:19 pm TRESPASSING
26-0808408 329 SIMPSON RD August 27, 2026 1:15 pm TRAFFIC PROBLEM-CONTROL
26-0808407 230 S BROADVIEW August 27, 2026 1:15 pm ACCIDENT - PROPERTY DAMAGE
26-0808406 620 CHESTNUT ST August 27, 2026 1:08 pm ATTEMPT TO CONTACT
26-0808401 10 BEECHWOOD LN August 27, 2026 12:48 pm AGENCY ASSIST
26-0808400 195 CANEY CREEK RD August 27, 2026 12:44 pm HARASSING COMMUNICATIONS
26-0808398 334 SKUNK HOLLOW RD August 27, 2026 12:36 pm ATTEMPT TO CONTACT
26-0808397 530 S DONAGHEY AVE August 27, 2026 12:31 pm TERRORISTIC THREATENING
26-0808387 608 ROBINS ST August 27, 2026 12:05 pm SUPPLEMENT REPORT CALL
26-0808386 419 E OAK ST August 27, 2026 12:02 pm LOITERING
26-0808385 801 LOCUST AVE August 27, 2026 12:00 pm FRAUD
26-0808382 19 PETE LN August 27, 2026 11:53 am INTERFERENCE WITH CUSTODY
26-0808380 601 ACKLIN GAP RD August 27, 2026 11:49 am ACCIDENT - PROPERTY DAMAGE
26-0808377 26-0808377 2220 PRINCE ST August 27, 2026 11:41 am DISORDERLY CONDUCT
26-0808375 405 HIGHWAY 25 N August 27, 2026 11:34 am MISDEMEANOR WARRANT SERVICE
26-0808372 384 HIGHWAY 65 N August 27, 2026 11:27 am ENDANGERING WELFARE OF MINOR
26-0808367 50 WHISPERING WIND CIR August 27, 2026 11:12 am ASSAULT
26-0808364 1105 PRAIRIE ST August 27, 2026 11:02 am ATTEMPT TO CONTACT
26-0808360 1105 PRAIRIE ST August 27, 2026 10:57 am ATTEMPT TO CONTACT
26-0808359 618 HIGHWAY 64 E August 27, 2026 10:52 am ACCIDENT - HIT AND RUN
26-0808354 132 I40WB August 27, 2026 10:27 am RECKLESS DRIVER
26-0808353 2235 DAVE WARD DR August 27, 2026 10:20 am CHECK ON THE WELFARE
26-0808351 26-0808351 4550 PRINCE ST August 27, 2026 10:16 am ATTEMPT TO CONTACT
26-0808350 2200 BRUCE ST August 27, 2026 10:15 am ATTEMPT TO CONTACT
26-0808349 11 GRASSY LAKE RD August 27, 2026 10:14 am LITTERING
26-0808348 620 CHESTNUT ST August 27, 2026 10:01 am ATTEMPT TO CONTACT
26-0808346 40 WEST HILLS RD August 27, 2026 9:48 am CHECKING VEHICLE
26-0808344 1950 HARKRIDER ST August 27, 2026 9:42 am ATTEMPT TO CONTACT
26-0808343 620 3RD AVE August 27, 2026 9:27 am SUPPLEMENT REPORT CALL
26-0808341 30 GOLD LAKE CLUB RD August 27, 2026 9:21 am SERVING PAPERS
26-0808339 26-0808339 525 S GERMAN LN August 27, 2026 9:11 am MISDEMEANOR WARRANT SERVICE
26-0808338 1105 PRAIRIE ST August 27, 2026 9:05 am ATTEMPT TO CONTACT
26-0808334 135 I40EB August 27, 2026 9:00 am ACCIDENT - PROPERTY DAMAGE
26-0808333 405 HIGHWAY 25 N August 27, 2026 8:52 am ATTEMPT TO CONTACT
26-0808331 1 REPUBLICAN VALLEY DR August 27, 2026 8:46 am ACCIDENT - PROPERTY DAMAGE
26-0808326 135 I40EB August 27, 2026 8:21 am ACCIDENT - PERSONAL INJURY
26-0808324 749 S FARRIS RD August 27, 2026 8:16 am TRAFFIC PROBLEM-CONTROL
26-0808323 1224 JERSEY ST August 27, 2026 8:15 am ATTEMPT TO CONTACT
26-0808322 2560 PRINCE ST August 27, 2026 8:14 am ASSIST FIRE
26-0808320 1155 SKYLINE DR August 27, 2026 8:10 am ACCIDENT - PRIVATE PROPERTY
26-0808317 3100 IRBY DR August 27, 2026 7:57 am BREAKING OR ENTERING
26-0808308 38 GARLAND SPRINGS RD August 27, 2026 7:36 am RECKLESS DRIVER
26-0808304 2085 KEATHLEY DR August 27, 2026 7:20 am BARKING DOG COMPLAINT
26-0808303 26-0808303 604 ROBINS ST August 27, 2026 7:18 am THEFT OF PROPERTY
26-0808300 1222 HIGHWAY 107 N August 27, 2026 7:13 am ACCIDENT - PROPERTY DAMAGE
26-0808298 4 WILDCAT TRL August 27, 2026 7:04 am ACCIDENT - PERSONAL INJURY
26-0808294 3715 PRINCE ST August 27, 2026 6:31 am CHECK ON THE WELFARE
26-0808292 1405 S DONAGHEY AVE August 27, 2026 5:59 am CHECK ON THE WELFARE
26-0808290 328 HIGHWAY 64 E August 27, 2026 5:46 am ACCIDENT - PROPERTY DAMAGE
26-0808289 1600 CENTENNIAL CLUB DR August 27, 2026 5:45 am SUSPICIOUS ACTIVITY
26-0808286 26-0808286 1105 PRAIRIE ST August 27, 2026 5:41 am FRAUD
26-0808282 284 HIGHWAY 365 August 27, 2026 4:48 am CHECK ON THE WELFARE
26-0808280 1032 CLIFTON ST August 27, 2026 4:44 am BREAKING OR ENTERING
26-0808278 22 JUNIOR DR August 27, 2026 4:11 am 911 HANGUP CALL
26-0808275 401 HIGHWAY 285 N August 27, 2026 3:57 am SUSPICIOUS ACTIVITY
26-0808272 1900 TYLER ST August 27, 2026 3:37 am CHECKING VEHICLE
26-0808268 1899 EAST GERMAN LN August 27, 2026 3:04 am CHECKING VEHICLE
26-0808265 1799 HIGHWAY 36 August 27, 2026 1:46 am CITIZEN ASSIST
26-0808261 43 HALEY CIR August 27, 2026 1:08 am REPOSSESSION
26-0808257 127 I40WB August 27, 2026 12:33 am ATTEMPT TO CONTACT
26-0808253 127 I40WB August 26, 2026 11:14 pm RECKLESS DRIVER
26-0808252 1105 PRAIRIE ST August 26, 2026 11:03 pm ATTEMPT TO CONTACT
26-0808250 26-0808250 1115 COLLEGE AVE August 26, 2026 10:35 pm CHECK ON THE WELFARE
26-0808244 47 WEAVER FARM RD August 26, 2026 10:07 pm DISTURBANCE
26-0808243 801 LOCUST AVE August 26, 2026 9:59 pm THEFT OF PROPERTY
26-0808237 28 INTEGRITY LOOP August 26, 2026 9:35 pm DISTURBANCE
26-0808236 127 I40WB August 26, 2026 9:28 pm PURSUIT
26-0808233 1019 HIGHWAY 64 E August 26, 2026 9:26 pm CHECKING VEHICLE
26-0808226 1901 BLACKBERRY LN August 26, 2026 9:06 pm ROAD RAGE
26-0808219 1465 HIGHWAY 65 N August 26, 2026 8:11 pm ATTEMPT TO CONTACT
26-0808218 1599 ROBINSON AVE August 26, 2026 8:00 pm SUPPLEMENT REPORT CALL
26-0808217 48 BARHAM LOOP August 26, 2026 7:59 pm ATTEMPT TO CONTACT
26-0808216 537 HIGHWAY 64 E August 26, 2026 7:49 pm CHECK ON THE WELFARE
26-0808213 195 CANEY CREEK RD August 26, 2026 7:40 pm DISTURBANCE
26-0808211 2050 DAVE WARD DR August 26, 2026 7:27 pm CITIZEN ASSIST
26-0808206 799 S SALEM RD August 26, 2026 7:00 pm ACCIDENT - PERSONAL INJURY
26-0808205 110 E 6TH ST August 26, 2026 7:00 pm CIVIL MATTER
26-0808204 201 SKYLINE DR August 26, 2026 6:59 pm TRAFFIC PROBLEM-CONTROL
26-0808202 1701 STURGIS RD August 26, 2026 6:46 pm ASSIST FIRE
26-0808200 1060 TURNBERRY DR August 26, 2026 6:40 pm ATTEMPT TO CONTACT
26-0808199 1625 HARKRIDER ST August 26, 2026 6:34 pm WEATHER RELATED CALLS-PROBLEMS
26-0808198 1099 BRUCE ST August 26, 2026 6:33 pm WEATHER RELATED CALLS-PROBLEMS
26-0808197 1400 WASHINGTON AVE August 26, 2026 6:30 pm WEATHER RELATED CALLS-PROBLEMS
26-0808193 7 ROSEMOUNT DR August 26, 2026 6:01 pm TRESPASSING
26-0808192 1399 DONAGHEY AVE August 26, 2026 6:01 pm ACCIDENT - PROPERTY DAMAGE
26-0808191 201 DONAGHEY AVE August 26, 2026 5:59 pm ATTEMPT TO CONTACT
26-0808189 75 SALTILLO RD August 26, 2026 5:51 pm DOMESTIC DISTURBANCE
26-0808188 1105 PRAIRIE ST August 26, 2026 5:48 pm ATTEMPT TO CONTACT
26-0808187 801 LOCUST AVE August 26, 2026 5:45 pm WEATHER RELATED CALLS-PROBLEMS
26-0808186 620 ELSINGER BLVD August 26, 2026 5:44 pm CRIMINAL MISCHIEF
26-0808185 753 FARRIS RD August 26, 2026 5:41 pm ACCIDENT - PROPERTY DAMAGE
26-0808182 899 S HARKRIDER DR August 26, 2026 5:16 pm ACCIDENT - PERSONAL INJURY
26-0808180 911 OAK ST August 26, 2026 5:13 pm ASSIST FIRE
26-0808178 1060 TURNBERRY DR August 26, 2026 5:11 pm SUSPICIOUS ACTIVITY
26-0808176 1815 PRINCE ST August 26, 2026 5:01 pm BATTERY REPORT
26-0808175 1850 BLAKE LN August 26, 2026 4:54 pm ORDINANCE VIOLATION
26-0808174 599 LOCUST AVE August 26, 2026 4:52 pm TRAFFIC PROBLEM-CONTROL
26-0808173 4499 HIGHWAY 25 August 26, 2026 4:44 pm STALLED VEHICLE
26-0808169 130 HARKRIDER ST August 26, 2026 4:37 pm ASSIST FIRE
26-0808164 19 BEATTY LN August 26, 2026 4:26 pm CHECK ON THE WELFARE
26-0808162 2235 BRUCE ST August 26, 2026 4:22 pm ACCIDENT - PERSONAL INJURY
26-0808160 1500 MUSEUM RD August 26, 2026 4:19 pm ASSIST FIRE
26-0808155 35 NEWBERRY RD August 26, 2026 4:08 pm AGENCY ASSIST
26-0808152 620 CHESTNUT ST August 26, 2026 4:05 pm ATTEMPT TO CONTACT
26-0808149 801 LOCUST AVE August 26, 2026 3:58 pm ATTEMPT TO CONTACT
26-0808146 530 S DONAGHEY AVE August 26, 2026 3:53 pm DOMESTIC DISTURBANCE
26-0808142 1000 WESTERN ST August 26, 2026 3:45 pm TRAFFIC PROBLEM-CONTROL
26-0808139 26-0808139 1955 KEATHLEY DR August 26, 2026 3:34 pm FOUND PROPERTY
26-0808137 12 ROLLING HILLS DR August 26, 2026 3:29 pm ATTEMPT TO CONTACT
26-0808129 3900 DAVE WARD DR August 26, 2026 3:00 pm CITIZEN ASSIST
26-0808128 174 APPLEYARD RD August 26, 2026 2:58 pm CIVIL MATTER
26-0808127 1405 S DONAGHEY AVE August 26, 2026 2:55 pm ATTEMPT TO CONTACT
26-0808125 1075 COLLIER DR August 26, 2026 2:47 pm CIVIL MATTER
26-0808124 9 JEAN LN August 26, 2026 2:45 pm SUSPICIOUS PERSON
26-0808123 2099 TYLER ST August 26, 2026 2:38 pm RECKLESS DRIVER
26-0808121 2605 COLLEGE AVE August 26, 2026 2:27 pm ACCIDENT - PROPERTY DAMAGE
26-0808119 800 E 6TH ST August 26, 2026 2:22 pm ACCIDENT - PERSONAL INJURY
26-0808117 1828 HOGAN LN August 26, 2026 2:20 pm ATTEMPT TO CONTACT
26-0808116 12 ROLLING HILLS DR August 26, 2026 2:20 pm ATTEMPT TO CONTACT
26-0808113 1800 HUTTO ST August 26, 2026 2:15 pm CHECK ON THE WELFARE
26-0808111 7 BARBARA POINTE August 26, 2026 2:13 pm LOUD NOISE-MUSIC
26-0808109 1105 PRAIRIE ST August 26, 2026 2:07 pm ATTEMPT TO CONTACT
26-0808108 500 S GERMAN LN August 26, 2026 2:06 pm ATTEMPT TO CONTACT
26-0808106 77 HEFFINGTON CEMETERY RD August 26, 2026 1:59 pm AGENCY ASSIST
26-0808104 16 CEDAR HILL RD August 26, 2026 1:54 pm CHECK ON THE WELFARE
26-0808100 1105 PRAIRIE ST August 26, 2026 1:34 pm ATTEMPT TO CONTACT
26-0808098 414 HARKRIDER ST August 26, 2026 1:29 pm ACCIDENT - PROPERTY DAMAGE
26-0808097 2215 BROADVIEW AVE August 26, 2026 1:22 pm CIVIL MATTER
26-0808096 1310 JOSITA CIR August 26, 2026 1:21 pm FRAUD
26-0808095 3205 CIMARRON DR August 26, 2026 1:19 pm ATTEMPT TO CONTACT
26-0808093 1120 E OAK ST August 26, 2026 1:07 pm ACCIDENT - PRIVATE PROPERTY
26-0808092 174 APPLEYARD RD August 26, 2026 1:07 pm TRESPASSING
26-0808091 299 DONAGHEY AVE August 26, 2026 12:58 pm ACCIDENT - PROPERTY DAMAGE
26-0808088 101 OAK ST August 26, 2026 12:50 pm PARKING VIOLATION
26-0808085 1260 S AMITY RD August 26, 2026 12:42 pm ACCIDENT - PRIVATE PROPERTY
26-0808084 75 EASTERWOOD POINT RD August 26, 2026 12:40 pm ACCIDENT - PERSONAL INJURY
26-0808080 1060 S AMITY RD August 26, 2026 12:29 pm CITIZEN ASSIST
26-0808079 2530 MARIE DR August 26, 2026 12:27 pm LOST CHILD
26-0808075 314 STURGIS RD August 26, 2026 12:14 pm STALLED VEHICLE
26-0808073 955 S GERMAN LN August 26, 2026 12:07 pm ATTEMPT TO CONTACT
26-0808072 600 5TH AVE August 26, 2026 12:02 pm CHECKING VEHICLE
26-0808069 207 WILLOW ST August 26, 2026 11:56 am TRESPASSING
26-0808067 102 OAK ST August 26, 2026 11:45 am ATTEMPT TO CONTACT
26-0808064 510 WINDMILL CIR August 26, 2026 11:38 am SUSPICIOUS ACTIVITY
26-0808061 2125 HARKRIDER ST August 26, 2026 11:29 am ASSIST FIRE
26-0808059 1105 PRAIRIE ST August 26, 2026 11:27 am ATTEMPT TO CONTACT
26-0808058 899 E OAK ST August 26, 2026 11:26 am TRAFFIC PROBLEM-CONTROL
26-0808055 26-0808055 1105 PRAIRIE ST August 26, 2026 11:23 am MISDEMEANOR WARRANT SERVICE
26-0808052 2840 DAVE WARD DR August 26, 2026 11:18 am ATTEMPT TO CONTACT
26-0808051 330 HIGHWAY 65 N August 26, 2026 11:16 am ATTEMPT TO CONTACT
26-0808050 2310 SANDERS ST August 26, 2026 11:15 am CHECKING VEHICLE
26-0808049 10 REBECCA LN August 26, 2026 11:09 am CHECK ON THE WELFARE
26-0808045 1090 SKYLINE DR August 26, 2026 10:52 am ATTEMPT TO CONTACT
26-0808044 599 E DAVE WARD DR August 26, 2026 10:48 am ACCIDENT - PROPERTY DAMAGE
26-0808036 300 S DONAGHEY AVE August 26, 2026 10:39 am ATTEMPT TO CONTACT
26-0808035 714 FARRIS RD August 26, 2026 10:38 am REPOSSESSION
26-0808034 109 N MAIN ST August 26, 2026 10:38 am CHECK ON THE WELFARE
26-0808033 26-0808033 2300 EAST ST August 26, 2026 10:33 am MISDEMEANOR WARRANT SERVICE
26-0808031 132 I40WB August 26, 2026 10:29 am RECKLESS DRIVER
26-0808030 710 S COUNTRY CLUB RD August 26, 2026 10:28 am ACCIDENT - PRIVATE PROPERTY
26-0808026 211 GARLAND SPRINGS RD August 26, 2026 10:13 am CIVIL MATTER
26-0808025 1105 PRAIRIE ST August 26, 2026 10:04 am ATTEMPT TO CONTACT
26-0808024 999 MILL ST August 26, 2026 9:53 am ACCIDENT - PROPERTY DAMAGE
26-0808021 1105 PRAIRIE ST August 26, 2026 9:32 am SUPPLEMENT REPORT CALL
26-0808020 12 SILVERTHORN DR August 26, 2026 9:24 am SUSPICIOUS VEHICLE
26-0808016 850 OAK ST August 26, 2026 8:52 am SUPPLEMENT REPORT CALL
26-0808012 159 LOWER RIDGE RD August 26, 2026 8:34 am AGENCY ASSIST
26-0808010 1250 S AMITY RD August 26, 2026 8:30 am LOST PROPERTY
26-0808009 10 LOWER RIDGE RD August 26, 2026 8:27 am ENDANGERING WELFARE OF MINOR
26-0808008 431 HIGHWAY 285 N August 26, 2026 8:23 am ATTEMPT TO CONTACT
26-0808006 127 I40EB August 26, 2026 8:19 am CHECKING PERSON
26-0808005 2500 PEGGY LN August 26, 2026 8:18 am ATTEMPT TO CONTACT
26-0808004 360 SHAW ST August 26, 2026 8:11 am ATTEMPT TO CONTACT
26-0808002 620 CHESTNUT ST August 26, 2026 8:06 am ACCIDENT - PRIVATE PROPERTY
26-0808001 159 LOWER RIDGE RD August 26, 2026 8:04 am ACCIDENT - PROPERTY DAMAGE
26-0807999 3 HIGHWAY 124 W August 26, 2026 8:00 am ACCIDENT - PERSONAL INJURY
26-0807998 551 HARKRIDER ST August 26, 2026 7:56 am ACCIDENT - PERSONAL INJURY
26-0807990 2305 KRYSTAL KREEK DR August 26, 2026 7:46 am AGENCY ASSIST
26-0807989 151 PLANTATION DR August 26, 2026 7:43 am PROPERTY DAMAGE
26-0807988 2305 KRYSTAL KREEK DR August 26, 2026 7:40 am AGENCY ASSIST
26-0807987 1220 E OAK ST August 26, 2026 7:40 am ACCIDENT - PROPERTY DAMAGE
26-0807984 43 MILLER ST August 26, 2026 7:34 am SUSPICIOUS ACTIVITY
26-0807978 867 FENDLEY DR August 26, 2026 6:10 am REPOSSESSION
26-0807977 9 TUPELO RD August 26, 2026 5:41 am ACCIDENT - PERSONAL INJURY
26-0807975 26-0807975 2840 DAVE WARD DR August 26, 2026 5:22 am DOMESTIC DISTURBANCE
26-0807973 8 NOB HILL DR August 26, 2026 5:00 am BURGLARY
26-0807971 26-0807971 400 S DONAGHEY AVE August 26, 2026 4:53 am BATTERY REPORT
26-0807970 18 COPPER SPRINGS DR August 26, 2026 4:26 am REPOSSESSION
26-0807969 1905 OLD MORRILTON HIGHWAY August 26, 2026 4:21 am TRESPASSING
26-0807966 26-0807966 1090 SKYLINE DR August 26, 2026 3:11 am ARMED SUBJECT
26-0807965 855 S SALEM RD August 26, 2026 3:10 am ATTEMPT TO CONTACT
26-0807964 1019 S DONAGHEY AVE August 26, 2026 3:08 am CHECKING PERSON
26-0807961 125 HIGHWAY 365 August 26, 2026 2:50 am CHECK ON THE WELFARE
26-0807959 558 HIGHWAY 365 August 26, 2026 2:36 am CHECKING VEHICLE
26-0807954 405 WATKINS ST August 26, 2026 2:14 am REPOSSESSION
26-0807953 67 PILGRIM REST RD August 26, 2026 1:58 am ATTEMPT TO CONTACT
26-0807952 155 FARRIS RD August 26, 2026 1:57 am CHECKING PERSON
26-0807949 7 W CASE CV August 26, 2026 1:33 am SHOTS FIRED
26-0807947 860 TURNER TRL August 26, 2026 12:36 am ATTEMPT TO CONTACT
26-0807946 1601 HOGAN LN August 26, 2026 12:34 am HARASSMENT
26-0807945 26-0807945 525 S GERMAN LN August 26, 2026 12:25 am MISDEMEANOR WARRANT SERVICE
26-0807944 4 CLINTON RD August 26, 2026 12:12 am RECKLESS DRIVER
26-0807940 1010 E OAK ST August 25, 2026 11:40 pm SUSPICIOUS ACTIVITY
26-0807939 1161 OLD MORRILTON HIGHWAY August 25, 2026 11:35 pm INDECENT EXPOSURE
26-0807929 26-0807929 2190 MILLERS CREEK DR August 25, 2026 10:49 pm ATTEMPT TO CONTACT
26-0807926 6 LAKE COVE DR August 25, 2026 10:44 pm ATTEMPT TO CONTACT
26-0807925 159 LOWER RIDGE RD August 25, 2026 10:44 pm CHECKING VEHICLE
26-0807923 335 SHAW ST August 25, 2026 10:40 pm DISTURBANCE
26-0807921 480 EXCHANGE AVE August 25, 2026 10:36 pm ATTEMPT TO CONTACT
26-0807920 3950 DAVE WARD DR August 25, 2026 10:22 pm FRAUD
26-0807919 14 EASTWOOD OAKS August 25, 2026 10:21 pm SUSPICIOUS ACTIVITY
26-0807918 26-0807918 2199 PRINCE ST August 25, 2026 10:20 pm PURSUIT
26-0807913 2099 DAVE WARD DR August 25, 2026 9:56 pm ACCIDENT - PROPERTY DAMAGE
26-0807912 1075 HIGHWAY 65 N August 25, 2026 9:54 pm ATTEMPT TO CONTACT
26-0807911 2050 DAVE WARD DR August 25, 2026 9:44 pm ACCIDENT - HIT AND RUN
26-0807910 26-0807910 2050 DAVE WARD DR August 25, 2026 9:42 pm CHECKING VEHICLE
26-0807907 74 LEONARD LOOP August 25, 2026 9:33 pm DOMESTIC DISTURBANCE
26-0807904 26-0807904 3676 DONNELL RIDGE RD August 25, 2026 9:25 pm HARASSMENT
26-0807902 2695 DAVE WARD DR August 25, 2026 9:24 pm CHECKING VEHICLE
26-0807898 2099 DAVE WARD DR August 25, 2026 9:06 pm STALLED VEHICLE
26-0807897 801 LOCUST AVE August 25, 2026 9:00 pm ATTEMPT TO CONTACT
26-0807893 399 S DAVIS ST August 25, 2026 8:54 pm CHECKING PERSON
26-0807892 41 SANDSTONE DR August 25, 2026 8:52 pm CHECK ON THE WELFARE
26-0807890 1 BOBCAT TRL August 25, 2026 8:46 pm CHECK ON THE WELFARE
26-0807885 1 HARBOR HOME LN August 25, 2026 8:40 pm ROAD RAGE
26-0807884 1513 EAST GERMAN LN August 25, 2026 8:38 pm ATTEMPT TO CONTACT
26-0807882 2915 PEBBLE BEACH DR August 25, 2026 8:35 pm UNKNOWN TROUBLE
26-0807880 42 SUNNY GAP RD August 25, 2026 8:28 pm SUSPICIOUS PERSON
26-0807879 26-0807879 480 EXCHANGE AVE August 25, 2026 8:26 pm TRESPASSING
26-0807877 26-0807877 1828 HOGAN LN August 25, 2026 8:22 pm CIVIL STAND BY
26-0807873 26-0807873 321 WILLOW ST August 25, 2026 8:15 pm DOMESTIC DISTURBANCE
26-0807871 1070 EDINBURGH DR August 25, 2026 8:09 pm CHECK ON THE WELFARE
26-0807869 1155 SKYLINE DR August 25, 2026 8:04 pm AGENCY ASSIST
26-0807866 170 CARDIN CIR August 25, 2026 8:00 pm ATTEMPT TO CONTACT
26-0807861 26-0807861 525 S GERMAN LN August 25, 2026 7:46 pm MISDEMEANOR WARRANT SERVICE
26-0807859 26-0807859 400 S DONAGHEY AVE August 25, 2026 7:33 pm DOMESTIC DISTURBANCE
26-0807858 33 HILLTOP DR August 25, 2026 7:33 pm SUSPICIOUS ACTIVITY
26-0807857 2280 SANDERS ST August 25, 2026 7:26 pm PARKING VIOLATION
26-0807855 2575 SALEM RD August 25, 2026 7:25 pm DISTURBANCE
26-0807853 284 HIGHWAY 365 August 25, 2026 7:18 pm FOUND PROPERTY
26-0807847 154 LAKE BENNETT RD August 25, 2026 6:49 pm TERRORISTIC THREATENING
26-0807844 305 HIGHWAY 286 E August 25, 2026 6:40 pm ACCIDENT - PERSONAL INJURY
26-0807840 2799 SALEM RD August 25, 2026 6:34 pm RECKLESS DRIVER
26-0807837 950 DAVE WARD DR August 25, 2026 6:28 pm CHECK ON THE WELFARE
26-0807836 239 STURGIS RD August 25, 2026 6:26 pm CHECK ON THE WELFARE
26-0807834 100 BILL HEGEMAN BLVD August 25, 2026 6:25 pm TRESPASSING
26-0807833 5 SIMON LN August 25, 2026 6:25 pm DOMESTIC DISTURBANCE
26-0807830 26-0807830 500 S GERMAN LN August 25, 2026 6:22 pm MISDEMEANOR WARRANT SERVICE
26-0807829 26-0807829 2255 ROSEMARY DR August 25, 2026 6:14 pm DISTURBANCE
26-0807827 899 MUSEUM RD August 25, 2026 6:09 pm ACCIDENT - PROPERTY DAMAGE
26-0807826 10 PICKLES GAP RD August 25, 2026 6:05 pm ASSIST FIRE
26-0807822 39 TRINA LOOP August 25, 2026 5:59 pm ATTEMPT TO CONTACT
26-0807820 26-0807820 1722 CALDWELL ST August 25, 2026 5:44 pm THEFT OF PROPERTY
26-0807819 233 SUNNY GAP RD August 25, 2026 5:42 pm ATTEMPT TO CONTACT
26-0807816 906 PINE ST August 25, 2026 5:31 pm ATTEMPT TO CONTACT
26-0807815 2255 ROSEMARY DR August 25, 2026 5:28 pm DOMESTIC DISTURBANCE
26-0807813 2940 WINDAMERE DR August 25, 2026 5:21 pm FIGHT
26-0807810 140 STANLEY RD August 25, 2026 5:06 pm ATTEMPT TO CONTACT
26-0807804 26-0807804 404 OAK ST August 25, 2026 4:59 pm ACCIDENT - PERSONAL INJURY
26-0807803 2600 DAVE WARD DR August 25, 2026 4:55 pm ACCIDENT - PROPERTY DAMAGE
26-0807802 26-0807802 1720 OLD MORRILTON HIGHWAY August 25, 2026 4:54 pm ACCIDENT - PROPERTY DAMAGE
26-0807800 1620 MIDDLE RD August 25, 2026 4:48 pm ASSIST FIRE
26-0807798 93 CHINQUAPIN RD August 25, 2026 4:40 pm ASSIST FIRE
26-0807793 17 OTTO LANDING DR August 25, 2026 4:32 pm ATTEMPT TO CONTACT
26-0807789 4070 GABRIAL DR August 25, 2026 4:26 pm CITIZEN ASSIST
26-0807788 1423 BEAN ST August 25, 2026 4:21 pm ATTEMPT TO CONTACT
26-0807784 4 TERRA VALLEY DR August 25, 2026 4:13 pm SUSPICIOUS ACTIVITY
26-0807780 2215 LOOKOUT AVE August 25, 2026 4:00 pm ATTEMPT TO CONTACT
26-0807777 295 WILSON BOTTOMS RD August 25, 2026 3:42 pm RECKLESS DRIVER
26-0807776 1040 S AMITY RD August 25, 2026 3:38 pm ATTEMPT TO CONTACT
26-0807775 1050 JOHN MASON DR August 25, 2026 3:37 pm VEHICLE TOW
26-0807773 1099 SIEBENMORGEN RD August 25, 2026 3:37 pm ATTEMPT TO CONTACT
26-0807771 39 TRINA LOOP August 25, 2026 3:29 pm HARASSING COMMUNICATIONS
26-0807767 1301 CLIFTON ST August 25, 2026 3:27 pm ATTEMPT TO CONTACT
26-0807763 2800 PEBBLE BEACH DR August 25, 2026 3:19 pm CHECK ON THE WELFARE
26-0807762 115 FARRIS RD August 25, 2026 3:19 pm SUSPICIOUS VEHICLE
26-0807755 156 LAKE BENNETT RD August 25, 2026 2:57 pm ATTEMPT TO CONTACT
26-0807752 1717 S DONAGHEY AVE August 25, 2026 2:45 pm ATTEMPT TO CONTACT
26-0807750 26-0807750 2618 W MARTIN ST August 25, 2026 2:35 pm BREAKING OR ENTERING
26-0807749 5 SHOEMAKER CIR August 25, 2026 2:34 pm BURGLARY
26-0807747 26-0807747 500 S GERMAN LN August 25, 2026 2:26 pm INTOXICATED DRIVER
26-0807744 26-0807744 1040 S AMITY RD August 25, 2026 2:17 pm FIGHT
26-0807742 300 S DONAGHEY AVE August 25, 2026 2:14 pm ATTEMPT TO CONTACT
26-0807741 26-0807741 1001 FRONT ST August 25, 2026 2:09 pm FRAUD
26-0807740 130 HARKRIDER ST August 25, 2026 2:07 pm ATTEMPT TO CONTACT
26-0807737 130 HARKRIDER ST August 25, 2026 1:53 pm CRIMINAL MISCHIEF
26-0807734 1018 FAULKNER ST August 25, 2026 1:50 pm THEFT OF PROPERTY
26-0807733 1900 HOGAN LN August 25, 2026 1:41 pm CHECK ON THE WELFARE
26-0807730 243 CONWAY BLVD August 25, 2026 1:34 pm ATTEMPT TO CONTACT
26-0807729 66 GOLD MINE SPRINGS RD August 25, 2026 1:33 pm HARASSING COMMUNICATIONS
26-0807728 955 S GERMAN LN August 25, 2026 1:33 pm DOMESTIC DISTURBANCE
26-0807727 26-0807727 1601 HOGAN LN August 25, 2026 1:31 pm FRAUD
26-0807726 130 HARKRIDER ST August 25, 2026 1:28 pm DISTURBANCE
26-0807723 1717 S DONAGHEY AVE August 25, 2026 1:20 pm ATTEMPT TO CONTACT
26-0807722 26-0807722 127 I40EB August 25, 2026 1:19 pm CHECKING PERSON
26-0807717 1999 COUNTRY CLUB RD August 25, 2026 1:10 pm CHECKING VEHICLE
26-0807715 680 SHELBY TRL August 25, 2026 1:06 pm ACCIDENT - PROPERTY DAMAGE
26-0807712 1105 PRAIRIE ST August 25, 2026 1:02 pm ATTEMPT TO CONTACT
26-0807709 1105 PRAIRIE ST August 25, 2026 12:48 pm FRAUD
26-0807708 63 PINTO TRL August 25, 2026 12:42 pm ATTEMPT TO CONTACT
26-0807705 620 3RD AVE August 25, 2026 12:32 pm SUPPLEMENT REPORT CALL
26-0807704 1305 DAVE WARD DR August 25, 2026 12:32 pm DISTURBANCE
26-0807702 723 HIGHWAY 89 S August 25, 2026 12:30 pm SUSPICIOUS PERSON
26-0807698 1310 JOSITA CIR August 25, 2026 12:23 pm INTERFERENCE WITH CUSTODY
26-0807696 1299 MILL ST August 25, 2026 12:15 pm ACCIDENT - PROPERTY DAMAGE
26-0807695 2099 FAVRE LN August 25, 2026 12:12 pm CHECKING VEHICLE
26-0807691 855 SALEM RD August 25, 2026 11:58 am ACCIDENT - PROPERTY DAMAGE
26-0807687 182 GREEN VALLEY DR August 25, 2026 11:53 am ATTEMPT TO CONTACT
26-0807686 2603 DAVE WARD DR August 25, 2026 11:48 am ASSIST FIRE
26-0807683 815 EXCHANGE AVE August 25, 2026 11:43 am ATTEMPT TO CONTACT
26-0807680 799 S SALEM RD August 25, 2026 11:32 am ATTEMPT TO CONTACT
26-0807675 1105 PRAIRIE ST August 25, 2026 11:02 am SUPPLEMENT REPORT CALL
26-0807674 501 ELSINGER BLVD August 25, 2026 10:58 am ACCIDENT - PRIVATE PROPERTY
26-0807669 2050 DAVE WARD DR August 25, 2026 10:45 am ATTEMPT TO CONTACT
26-0807668 2310 ROBINSON AVE August 25, 2026 10:40 am ATTEMPT TO CONTACT
26-0807666 26-0807666 150 SKYLINE DR August 25, 2026 10:38 am ATTEMPT TO CONTACT
26-0807665 26-0807665 1405 S DONAGHEY AVE August 25, 2026 10:37 am DOMESTIC DISTURBANCE
26-0807661 400 S DONAGHEY AVE August 25, 2026 10:18 am CITIZEN ASSIST
26-0807660 26-0807660 408 6TH ST August 25, 2026 10:17 am ATTEMPT TO CONTACT
26-0807659 26-0807659 750 AMITY RD August 25, 2026 10:16 am HARASSING COMMUNICATIONS
26-0807658 1099 SIEBENMORGEN RD August 25, 2026 10:03 am ATTEMPT TO CONTACT
26-0807657 26-0807657 2300 PRINCE ST August 25, 2026 9:56 am ENDANGERING WELFARE OF MINOR
26-0807656 26-0807656 246 OAK ST August 25, 2026 9:55 am CHECKING PERSON
26-0807650 4 BANE LN August 25, 2026 9:32 am DISTURBANCE
26-0807645 7 ALF LN August 25, 2026 9:00 am ORDINANCE VIOLATION
26-0807643 36 DOLPHIN CV August 25, 2026 8:58 am ASSIST FIRE
26-0807638 150 BATTLES LOOP August 25, 2026 8:39 am THEFT OF PROPERTY
26-0807637 26-0807637 815 E OAK ST August 25, 2026 8:37 am ATTEMPT TO CONTACT
26-0807635 182 GREEN VALLEY DR August 25, 2026 8:22 am SUPPLEMENT REPORT CALL
26-0807634 1260 WOODSIDE DR August 25, 2026 8:17 am SUSPICIOUS VEHICLE
26-0807632 328 SCENIC HILL RD August 25, 2026 8:06 am TRESPASSING
26-0807631 26-0807631 2290 MILLER'S CREEK DR August 25, 2026 8:01 am THEFT OF PROPERTY
26-0807627 127 BALLARD RD August 25, 2026 7:52 am ATTEMPT TO CONTACT
26-0807617 618 HIGHWAY 64 E August 25, 2026 7:25 am RECKLESS DRIVER
26-0807615 29 LIBERTY CREEK RD August 25, 2026 7:16 am TRESPASSING
26-0807614 1105 PRAIRIE ST August 25, 2026 7:14 am FELONY WARRANT SERVICE
26-0807613 22 HUDSON CV August 25, 2026 7:05 am ASSIST FIRE
26-0807612 202 JACKSON AVE August 25, 2026 6:58 am ATTEMPT TO CONTACT
26-0807610 601 ACKLIN GAP RD August 25, 2026 6:47 am REPOSSESSION
26-0807609 386 ACKLIN GAP RD August 25, 2026 6:29 am BURGLARY
26-0807607 499 DONAGHEY AVE August 25, 2026 6:09 am FLOCK ALERT
26-0807605 3080 ALDERWOOD DR August 25, 2026 5:28 am ABANDONED VEHICLE
26-0807602 1615 WESTLAKE DR August 25, 2026 5:03 am ATTEMPT TO CONTACT
26-0807600 1615 WESTLAKE DR August 25, 2026 4:43 am ATTEMPT TO CONTACT
26-0807599 54 N BROADVIEW August 25, 2026 4:40 am RECKLESS DRIVER
26-0807596 100 BILL HEGEMAN BLVD August 25, 2026 3:54 am SUSPICIOUS PERSON
26-0807589 480 EXCHANGE AVE August 25, 2026 2:45 am DISTURBANCE
26-0807588 451 HIGHWAY 365 August 25, 2026 2:43 am CHECKING VEHICLE
26-0807586 1601 HOGAN LN August 25, 2026 2:30 am CHECKING PERSON
26-0807585 26-0807585 750 AMITY RD August 25, 2026 2:06 am HARASSING COMMUNICATIONS
26-0807584 500 S GERMAN LN August 25, 2026 1:54 am FELONY WARRANT SERVICE
26-0807583 500 S GERMAN LN August 25, 2026 1:53 am MISDEMEANOR WARRANT SERVICE
26-0807582 1155 CUMULUS DR August 25, 2026 1:52 am LOUD NOISE-MUSIC
26-0807578 2890 DAVE WARD DR August 25, 2026 1:15 am CHECKING VEHICLE
26-0807575 275 ADKISSON RD August 25, 2026 12:58 am CHECKING BUILDING
26-0807574 20 RAGLAND DR August 25, 2026 12:53 am REPOSSESSION
26-0807573 3100 IRBY DR August 25, 2026 12:51 am CHECKING VEHICLE
26-0807572 498 HIGHWAY 65 N August 25, 2026 12:49 am TRAFFIC PROBLEM-CONTROL
26-0807567 26-0807567 14 SANDSTONE DR August 25, 2026 12:13 am CIVIL MATTER
26-0807564 2121 HAIRSTON AVE August 24, 2026 11:47 pm SUSPICIOUS ACTIVITY
26-0807561 475 ROBINS ST August 24, 2026 11:30 pm DOMESTIC DISTURBANCE
26-0807558 26-0807558 2120 CHASE DR August 24, 2026 11:24 pm HARASSING COMMUNICATIONS
26-0807553 1200 COVINGTON WAY August 24, 2026 10:55 pm CHECKING VEHICLE
26-0807552 3315 PEBBLE BEACH DR August 24, 2026 10:53 pm DISTURBANCE
26-0807551 2 PICKLES GAP RD August 24, 2026 10:37 pm DISTURBANCE
26-0807549 603 ROCKY POINT RD August 24, 2026 10:29 pm CHECK ON THE WELFARE
26-0807545 3 AMITY RD August 24, 2026 9:48 pm CHECKING VEHICLE
26-0807543 26-0807543 750 AMITY RD August 24, 2026 9:21 pm TRESPASSING
26-0807539 24 LAKE SHORE DR August 24, 2026 9:05 pm DOMESTIC DISTURBANCE
26-0807538 1090 SKYLINE DR August 24, 2026 8:59 pm CHECKING PERSON
26-0807537 1735 LONGFELLOW DR August 24, 2026 8:57 pm SUSPICIOUS VEHICLE
26-0807536 297 MATTHEWS RD August 24, 2026 8:54 pm ATTEMPT TO CONTACT
26-0807535 26 INTEGRITY LOOP August 24, 2026 8:50 pm DISTURBANCE
26-0807528 26-0807528 1703 JENNIFER CIR August 24, 2026 8:12 pm BATTERY REPORT
26-0807527 1155 CUMULUS DR August 24, 2026 8:09 pm CIVIL STAND BY
26-0807525 401 2ND ST August 24, 2026 8:06 pm CHECK ON THE WELFARE
26-0807524 540 AUDUBON PL August 24, 2026 8:03 pm TRESPASSING
26-0807521 19 PATTON RD August 24, 2026 7:59 pm CHECK ON THE WELFARE
26-0807519 23 FALLEN OAK DR August 24, 2026 7:52 pm ABANDONED VEHICLE
26-0807518 601 ELSINGER BLVD August 24, 2026 7:49 pm LOITERING
26-0807515 516 MONROE ST August 24, 2026 7:37 pm FOUND PROPERTY
26-0807514 489 HIGHWAY 65 N August 24, 2026 7:31 pm RECKLESS DRIVER
26-0807513 26-0807513 100 OAK ST August 24, 2026 7:21 pm CHECK ON THE WELFARE
26-0807511 2204 LOOKOUT AVE August 24, 2026 7:19 pm ATTEMPT TO CONTACT
26-0807509 30 JONES FARM RD August 24, 2026 6:48 pm TRESPASSING
26-0807507 2699 DONAGHEY AVE August 24, 2026 6:29 pm CHECKING VEHICLE
26-0807505 1304 COLLIER DR August 24, 2026 6:17 pm CIVIL MATTER
26-0807504 26-0807504 2215 PRINCE ST August 24, 2026 6:16 pm TRESPASSING
26-0807499 1099 SIEBENMORGEN RD August 24, 2026 6:08 pm ATTEMPT TO CONTACT
26-0807498 2103 SALEM RD August 24, 2026 5:59 pm STALLED VEHICLE
26-0807497 875 SKYLINE DR August 24, 2026 5:52 pm TRESPASSING
26-0807494 3435 MALVERN HILL DR August 24, 2026 5:48 pm SUSPICIOUS ACTIVITY
26-0807491 1001 MCNUTT RD August 24, 2026 5:35 pm CHECKING PERSON
26-0807489 204 HIGHWAY 319 E August 24, 2026 5:32 pm STALLED VEHICLE
26-0807487 612 5TH ST August 24, 2026 5:29 pm DOMESTIC DISTURBANCE
26-0807481 20 TRINA LOOP August 24, 2026 4:59 pm RUNAWAY
26-0807480 1105 PRAIRIE ST August 24, 2026 4:49 pm ATTEMPT TO CONTACT
26-0807479 26-0807479 2840 DAVE WARD DR August 24, 2026 4:47 pm THEFT OF PROPERTY
26-0807477 207 WILLOW ST August 24, 2026 4:43 pm ATTEMPT TO CONTACT
26-0807476 33 CANEY CREEK RD August 24, 2026 4:41 pm CIVIL MATTER
26-0807472 5123 OLD MORRILTON HIGHWAY August 24, 2026 4:27 pm RECKLESS DRIVER
26-0807471 1238 MCNUTT RD August 24, 2026 4:25 pm ACCIDENT - PRIVATE PROPERTY
26-0807470 675 AMITY RD August 24, 2026 4:24 pm DOMESTIC DISTURBANCE
26-0807469 1105 PRAIRIE ST August 24, 2026 4:24 pm CIVIL STAND BY
26-0807466 150 SKYLINE DR August 24, 2026 4:15 pm ATTEMPT TO CONTACT
26-0807465 1105 PRAIRIE ST August 24, 2026 4:14 pm ATTEMPT TO CONTACT
26-0807462 600 DAVE WARD DR August 24, 2026 4:10 pm ACCIDENT - PERSONAL INJURY
26-0807460 207 WILLOW ST August 24, 2026 4:06 pm TRESPASSING
26-0807459 1815 PRINCE ST August 24, 2026 4:05 pm ORDINANCE VIOLATION
26-0807458 1700 TYLER ST August 24, 2026 3:57 pm CHECKING PERSON
26-0807457 826 INTERSTATE 40 RAMP August 24, 2026 3:56 pm ATTEMPT TO CONTACT
26-0807455 38 GARLAND SPRINGS RD August 24, 2026 3:50 pm ATTEMPT TO CONTACT
26-0807454 540 UNITED DR August 24, 2026 3:46 pm ACCIDENT - HIT AND RUN
26-0807453 1204 SKYLINE DR August 24, 2026 3:45 pm ACCIDENT - PERSONAL INJURY
26-0807448 150 SKYLINE DR August 24, 2026 3:41 pm ATTEMPT TO CONTACT
26-0807447 500 S GERMAN LN August 24, 2026 3:40 pm FELONY WARRANT SERVICE
26-0807445 2111 LOOKOUT AVE August 24, 2026 3:36 pm ATTEMPT TO CONTACT
26-0807441 415 HARKRIDER ST August 24, 2026 3:25 pm ACCIDENT - PROPERTY DAMAGE
26-0807438 1000 WESTERN ST August 24, 2026 3:22 pm RECKLESS DRIVER
26-0807437 1250 E DAVE WARD DR August 24, 2026 3:15 pm ACCIDENT - PROPERTY DAMAGE
26-0807436 1105 PRAIRIE ST August 24, 2026 3:14 pm ATTEMPT TO CONTACT
26-0807435 26-0807435 800 PADGETT RD August 24, 2026 3:14 pm DISORDERLY CONDUCT
26-0807434 26-0807434 1105 PRAIRIE ST August 24, 2026 3:13 pm MISDEMEANOR WARRANT SERVICE
26-0807433 100 BILL HEGEMAN BLVD August 24, 2026 3:10 pm SUPPLEMENT REPORT CALL
26-0807432 801 LOCUST AVE August 24, 2026 3:08 pm ATTEMPT TO CONTACT
26-0807431 8 ROLLING CREEK CIR August 24, 2026 3:02 pm HARASSMENT
26-0807430 150 SKYLINE DR August 24, 2026 2:59 pm DISTURBANCE
26-0807429 26-0807429 1105 PRAIRIE ST August 24, 2026 2:57 pm HARASSMENT
26-0807427 1105 PRAIRIE ST August 24, 2026 2:55 pm FRAUD
26-0807426 307 HIGHWAY 365 August 24, 2026 2:53 pm AGENCY ASSIST
26-0807425 1105 PRAIRIE ST August 24, 2026 2:53 pm ATTEMPT TO CONTACT
26-0807420 110 TOWER RD August 24, 2026 2:47 pm ACCIDENT - PERSONAL INJURY
26-0807418 280 HIGHWAY 65 N August 24, 2026 2:31 pm ACCIDENT - PROPERTY DAMAGE
26-0807417 3900 DAVE WARD DR August 24, 2026 2:26 pm TRESPASSING
26-0807415 1405 S DONAGHEY AVE August 24, 2026 2:25 pm DOMESTIC DISTURBANCE
26-0807414 1105 PRAIRIE ST August 24, 2026 2:24 pm SUPPLEMENT REPORT CALL
26-0807411 187 BEAVERFORK RD August 24, 2026 2:11 pm ATTEMPT TO CONTACT
26-0807410 26-0807410 9 SMOKING OAK RD August 24, 2026 2:10 pm THEFT OF PROPERTY
26-0807403 574 CLINTON RD August 24, 2026 1:42 pm ATTEMPT TO CONTACT
26-0807402 26-0807402 1014 HARKRIDER ST August 24, 2026 1:42 pm FORGERY
26-0807401 3405 JEFF DAVIS DR August 24, 2026 1:39 pm SUSPICIOUS VEHICLE
26-0807399 1912 HOGAN LN August 24, 2026 1:38 pm ATTEMPT TO CONTACT
26-0807398 100 RIVENDELL DR August 24, 2026 1:34 pm ATTEMPT TO CONTACT
26-0807397 15 ROYAL LN August 24, 2026 1:31 pm 911 HANGUP CALL
26-0807396 849 COURT ST August 24, 2026 1:27 pm ACCIDENT - PROPERTY DAMAGE
26-0807395 419 E OAK ST August 24, 2026 1:27 pm CHECKING PERSON
26-0807394 1030 SKYLINE DR August 24, 2026 1:22 pm ACCIDENT - PROPERTY DAMAGE
26-0807391 1828 HOGAN LN August 24, 2026 1:03 pm NO CONTACT ORDER VIOLATION
26-0807390 1225 RAYMOND DR August 24, 2026 12:56 pm ATTEMPT TO CONTACT
26-0807389 26-0807389 600 EXPO BLVD August 24, 2026 12:41 pm THEFT OF PROPERTY
26-0807387 1105 PRAIRIE ST August 24, 2026 12:31 pm UNAUTHORIZED USE OF MOTOR VEHICLE
26-0807385 176 TOWER RD August 24, 2026 12:29 pm CHECK ON THE WELFARE
26-0807383 1950 HARKRIDER ST August 24, 2026 12:21 pm VEHICLE TOW
26-0807382 127 I40WB August 24, 2026 12:16 pm RECKLESS DRIVER
26-0807376 26-0807376 360 SHAW ST August 24, 2026 11:53 am THEFT OF PROPERTY
26-0807375 515 HIGHWAY 64 E August 24, 2026 11:51 am CHECK ON THE WELFARE
26-0807371 1122 VAN RONKLE ST August 24, 2026 11:40 am ACCIDENT - PRIVATE PROPERTY
26-0807370 1155 SKYLINE DR August 24, 2026 11:20 am CIVIL MATTER
26-0807368 26-0807368 2899 DAVE WARD DR August 24, 2026 11:20 am ACCIDENT - PERSONAL INJURY
26-0807367 26-0807367 159 LOWER RIDGE RD August 24, 2026 11:12 am THEFT OF PROPERTY
26-0807366 1070 MARKHAM ST August 24, 2026 11:08 am ATTEMPT TO CONTACT
26-0807365 35 MIDDLE RD August 24, 2026 11:05 am REPOSSESSION
26-0807360 1900 HOGAN LN August 24, 2026 10:51 am CIVIL MATTER
26-0807359 699 ROBINS ST August 24, 2026 10:44 am TRAFFIC PROBLEM-CONTROL
26-0807358 26-0807358 3085 DAVE WARD DR August 24, 2026 10:44 am CRIMINAL MISCHIEF
26-0807357 825 6TH ST August 24, 2026 10:42 am ACCIDENT - PROPERTY DAMAGE
26-0807353 2255 STURGIS RD August 24, 2026 10:23 am ATTEMPT TO CONTACT
26-0807352 1701 HAIRSTON AVE August 24, 2026 10:18 am ATTEMPT TO CONTACT
26-0807350 2245 RAINWOOD AVE August 24, 2026 10:07 am ATTEMPT TO CONTACT
26-0807349 699 ROBINS ST August 24, 2026 10:04 am ACCIDENT - PROPERTY DAMAGE
26-0807347 1105 PRAIRIE ST August 24, 2026 10:00 am ATTEMPT TO CONTACT
26-0807345 1599 S GERMAN LN August 24, 2026 9:56 am STALLED VEHICLE
26-0807342 699 ROBINS ST August 24, 2026 9:46 am TRAFFIC PROBLEM-CONTROL
26-0807340 2665 DONAGHEY AVE August 24, 2026 9:34 am TRESPASSING
26-0807339 721 4TH AVE August 24, 2026 9:32 am ATTEMPT TO CONTACT
26-0807334 2099 BRUCE ST August 24, 2026 9:23 am ACCIDENT - PERSONAL INJURY
26-0807329 26-0807329 503 MONROE ST August 24, 2026 8:51 am THEFT OF IDENTITY
26-0807327 121 I40WB August 24, 2026 8:50 am ACCIDENT - PERSONAL INJURY
26-0807326 123 I40EB August 24, 2026 8:38 am ACCIDENT - PERSONAL INJURY
26-0807324 26-0807324 1155 SKYLINE DR August 24, 2026 8:36 am CRIMINAL MISCHIEF
26-0807321 850 OAK ST August 24, 2026 8:27 am SUPPLEMENT REPORT CALL
26-0807319 237 HIGHWAY 64 E August 24, 2026 8:20 am BURGLARY
26-0807314 127 I40WB August 24, 2026 8:03 am ACCIDENT - PROPERTY DAMAGE
26-0807313 800 DAVE WARD DR August 24, 2026 8:03 am TRAFFIC LIGHT PROBLEM
26-0807311 268 OLD MILITARY RD August 24, 2026 7:52 am RECKLESS DRIVER
26-0807310 3501 COLLEGE AVE August 24, 2026 7:50 am ASSIST FIRE
26-0807309 1155 SKYLINE DR August 24, 2026 7:50 am SUSPICIOUS ACTIVITY
26-0807308 1900 KEATHLEY DR August 24, 2026 7:40 am STALLED VEHICLE
26-0807305 801 S SALEM RD August 24, 2026 7:30 am UNKNOWN TROUBLE
26-0807304 169 SUNNY GAP RD August 24, 2026 7:28 am ACCIDENT - PROPERTY DAMAGE
26-0807303 728 POLK ST August 24, 2026 7:26 am TRESPASSING
26-0807302 26-0807302 2002 DAVE WARD DR August 24, 2026 7:12 am CRIMINAL MISCHIEF
26-0807299 1170 E DAVE WARD DR August 24, 2026 7:01 am STALLED VEHICLE
26-0807298 799 S HOGAN LN August 24, 2026 7:00 am STALLED VEHICLE
26-0807293 142 NEWBERRY RD August 24, 2026 6:17 am SUPPLEMENT REPORT CALL
26-0807292 105 EASTERWOOD POINT RD August 24, 2026 5:37 am SUSPICIOUS PERSON
26-0807289 205 EASTERWOOD POINT RD August 24, 2026 5:05 am TRESPASSING
26-0807285 142 NEWBERRY RD August 24, 2026 4:51 am DOMESTIC DISTURBANCE
26-0807279 98 HIGHWAY 287 August 24, 2026 4:18 am PROWLER
26-0807276 1116 GUM ST August 24, 2026 3:48 am CRIMINAL MISCHIEF
26-0807275 1105 PRAIRIE ST August 24, 2026 3:38 am ATTEMPT TO CONTACT
26-0807272 1000 S AMITY RD August 24, 2026 3:00 am ASSIST FIRE
26-0807267 124 ACKLIN GAP RD August 24, 2026 2:13 am CHECKING PERSON
26-0807266 1053 NEAL ST August 24, 2026 2:09 am BURGLARY
26-0807257 142 BATESVILLE MOUNTAIN RD August 24, 2026 1:00 am SUSPICIOUS VEHICLE
26-0807253 675 ROBINS ST August 24, 2026 12:41 am CHECKING PERSON
26-0807252 1601 HOGAN LN August 24, 2026 12:26 am BURGLARY
26-0807251 750 S HOGAN LN August 24, 2026 12:19 am CITIZEN ASSIST
26-0807249 1325 MUSEUM RD August 24, 2026 12:07 am CHECKING PERSON
26-0807248 1250 TRENTON DR August 23, 2026 11:58 pm CHECKING VEHICLE
26-0807246 1355 S GERMAN LN August 23, 2026 11:55 pm CHECKING VEHICLE
26-0807245 300 HUBBARD RD August 23, 2026 11:36 pm BREAKING OR ENTERING
26-0807244 130 HARKRIDER ST August 23, 2026 11:34 pm SUSPICIOUS ACTIVITY
26-0807241 2820 PRINCE ST August 23, 2026 11:20 pm TRESPASSING
26-0807239 29 LIBERTY CREEK RD August 23, 2026 11:03 pm SHOTS FIRED
26-0807236 835 S DONAGHEY AVE August 23, 2026 10:50 pm VEHICLE TOW
26-0807231 265 S ASH ST August 23, 2026 10:13 pm LOUD NOISE-MUSIC
26-0807230 1025 S DONAGHEY AVE August 23, 2026 10:05 pm CHECK ON THE WELFARE
26-0807228 1440 RACHEL DR August 23, 2026 9:55 pm LOUD NOISE-MUSIC
26-0807225 26-0807225 2840 DAVE WARD DR August 23, 2026 9:44 pm ARMED SUBJECT
26-0807224 361 MOUNT NEBO RD August 23, 2026 9:39 pm DOMESTIC DISTURBANCE
26-0807220 100 BILL HEGEMAN BLVD August 23, 2026 9:31 pm SUPPLEMENT REPORT CALL
26-0807219 1 RED OAK DR August 23, 2026 9:29 pm ACCIDENT - PROPERTY DAMAGE
26-0807218 1000 HIGHWAY 287 August 23, 2026 9:23 pm ACCIDENT - PROPERTY DAMAGE
26-0807215 50 PINTO TRL August 23, 2026 9:21 pm NEGLECT
26-0807213 26-0807213 500 S GERMAN LN August 23, 2026 9:19 pm MISDEMEANOR WARRANT SERVICE
26-0807211 500 S GERMAN LN August 23, 2026 9:18 pm MISDEMEANOR WARRANT SERVICE
26-0807205 2302 COLLEGE AVE August 23, 2026 9:14 pm CIVIL STAND BY
26-0807201 100 BILL HEGEMAN BLVD August 23, 2026 9:06 pm ATTEMPT TO CONTACT
26-0807200 144 ARKAVALLEY RD August 23, 2026 9:05 pm INTERFERENCE WITH CUSTODY
26-0807196 2840 DAVE WARD DR August 23, 2026 8:45 pm HARASSMENT
26-0807194 1405 S DONAGHEY AVE August 23, 2026 8:37 pm DISTURBANCE
26-0807193 124 I40EB August 23, 2026 8:37 pm TRAFFIC PROBLEM-CONTROL
26-0807192 2299 DAVE WARD DR August 23, 2026 8:24 pm ASSIST FIRE
26-0807188 1 MICHAELS DR August 23, 2026 8:09 pm ASSIST FIRE
26-0807186 26-0807186 1600 WASHINGTON AVE August 23, 2026 7:57 pm HARASSMENT
26-0807185 100 BILL HEGEMAN BLVD August 23, 2026 7:57 pm SUPPLEMENT REPORT CALL
26-0807184 156 LAKE BENNETT RD August 23, 2026 7:54 pm THEFT OF PROPERTY
26-0807181 369 HIGHWAY 25 N August 23, 2026 7:51 pm TRESPASSING
26-0807178 31 MOUNT VERNON RD August 23, 2026 7:46 pm CHECK ON THE WELFARE
26-0807177 13 BOBBY DR August 23, 2026 7:44 pm ASSIST FIRE
26-0807175 34 NOBLE DR August 23, 2026 7:41 pm THEFT OF PROPERTY
26-0807173 26-0807173 401 2ND ST August 23, 2026 7:28 pm THEFT OF PROPERTY
26-0807172 2840 DAVE WARD DR August 23, 2026 7:26 pm BURGLARY
26-0807170 1827 HAIRSTON AVE August 23, 2026 7:14 pm BREAKING OR ENTERING
26-0807168 1404 CALDWELL ST August 23, 2026 7:02 pm ATTEMPT TO CONTACT
26-0807165 20 E ARAPAHO TRL August 23, 2026 6:43 pm ASSIST FIRE
26-0807164 1035 SKYLINE DR August 23, 2026 6:43 pm CHECK ON THE WELFARE
26-0807163 64 FLAG POND RD August 23, 2026 6:34 pm CHECK ON THE WELFARE
26-0807162 1105 PRAIRIE ST August 23, 2026 6:33 pm ATTEMPT TO CONTACT
26-0807161 5 OAKWOOD CIR August 23, 2026 6:31 pm RECKLESS DRIVER
26-0807158 100 BROOKSIDE DR August 23, 2026 6:26 pm DISTURBANCE
26-0807156 1425 HARKRIDER ST August 23, 2026 6:09 pm ACCIDENT - PROPERTY DAMAGE
26-0807155 26-0807155 250 CENTRAL LANDING BLVD August 23, 2026 6:06 pm ACCIDENT - PROPERTY DAMAGE
26-0807154 26-0807154 1404 CALDWELL ST August 23, 2026 6:05 pm HARASSMENT
26-0807153 1200 COVINGTON WAY August 23, 2026 6:05 pm TRESPASSING
26-0807151 1075 EAST GERMAN LN August 23, 2026 6:00 pm ATTEMPT TO CONTACT
26-0807150 1828 HOGAN LN August 23, 2026 5:59 pm CHECK ON THE WELFARE
26-0807149 1260 S AMITY RD August 23, 2026 5:57 pm TERRORISTIC THREATENING
26-0807148 2302 COLLEGE AVE August 23, 2026 5:57 pm ATTEMPT TO CONTACT
26-0807147 800 DAVE WARD DR August 23, 2026 5:35 pm RECKLESS DRIVER
26-0807145 26-0807145 500 S GERMAN LN August 23, 2026 5:20 pm MISDEMEANOR WARRANT SERVICE
26-0807144 506 HIGHWAY 64 E August 23, 2026 5:15 pm ACCIDENT - PRIVATE PROPERTY
26-0807143 3 RED WOLF TRL August 23, 2026 5:14 pm DOMESTIC DISTURBANCE
26-0807140 2120 LANDOVER TRL August 23, 2026 5:08 pm SUPPLEMENT REPORT CALL
26-0807138 2105 DAVE WARD DR August 23, 2026 4:58 pm CHECK ON THE WELFARE
26-0807136 2220 MARY ALICE DR August 23, 2026 4:54 pm TRESPASSING
26-0807134 315 HIGHWAY 365 August 23, 2026 4:44 pm CHECK ON THE WELFARE
26-0807133 1199 E DAVE WARD DR August 23, 2026 4:44 pm ACCIDENT - PROPERTY DAMAGE
26-0807132 1325 OLD MORRILTON HIGHWAY August 23, 2026 4:40 pm ATTEMPT TO CONTACT
26-0807131 801 LOCUST AVE August 23, 2026 4:39 pm FRAUD
26-0807130 1601 HOGAN LN August 23, 2026 4:33 pm DOMESTIC DISTURBANCE
26-0807128 1 HIGHWAY 25 N August 23, 2026 4:23 pm RECKLESS DRIVER
26-0807127 1075 EAST GERMAN LN August 23, 2026 4:20 pm HARASSING COMMUNICATIONS
26-0807126 1 HENRY HALL DR August 23, 2026 4:17 pm RECKLESS DRIVER
26-0807125 26-0807125 1405 S DONAGHEY AVE August 23, 2026 4:17 pm HARASSING COMMUNICATIONS
26-0807122 1075 EAST GERMAN LN August 23, 2026 4:07 pm HARASSING COMMUNICATIONS
26-0807120 510 5TH ST August 23, 2026 3:44 pm TRESPASSING
26-0807119 1600 WESTLAKE DR August 23, 2026 3:39 pm BREAKING OR ENTERING
26-0807116 26-0807116 1105 PRAIRIE ST August 23, 2026 3:23 pm ATTEMPT TO CONTACT
26-0807115 1675 MEADOWLAKE RD August 23, 2026 3:20 pm ATTEMPT TO CONTACT
26-0807114 820 BILL DEAN DR August 23, 2026 3:18 pm ASSIST FIRE
26-0807111 182 GREEN VALLEY DR August 23, 2026 3:09 pm THEFT OF PROPERTY
26-0807109 3490 PERRYVILLE DR August 23, 2026 3:05 pm FRAUD
26-0807108 1075 HIGHWAY 65 N August 23, 2026 3:02 pm RECKLESS DRIVER
26-0807107 211 ADAMS LAKE RD August 23, 2026 3:00 pm TRESPASSING
26-0807105 1199 DAVE WARD DR August 23, 2026 2:49 pm ACCIDENT - PROPERTY DAMAGE
26-0807099 3900 DAVE WARD DR August 23, 2026 2:05 pm ROAD RAGE
26-0807098 26-0807098 12 MANCHESTER DR August 23, 2026 2:01 pm HARASSMENT
26-0807093 237 HIGHWAY 89 N August 23, 2026 1:34 pm ASSIST FIRE
26-0807091 2099 DAVE WARD DR August 23, 2026 1:29 pm FLOCK ALERT
26-0807087 400 S DONAGHEY AVE August 23, 2026 1:07 pm ACCIDENT - PRIVATE PROPERTY
26-0807083 1105 PRAIRIE ST August 23, 2026 12:56 pm ATTEMPT TO CONTACT
26-0807080 1105 PRAIRIE ST August 23, 2026 12:17 pm ATTEMPT TO CONTACT
26-0807077 1463 HIGHWAY 65 N August 23, 2026 12:10 pm ACCIDENT - PERSONAL INJURY
26-0807074 1120 EAST GERMAN LN August 23, 2026 11:55 am ACCIDENT - PRIVATE PROPERTY
26-0807072 26-0807072 1200 COVINGTON WAY August 23, 2026 11:34 am BREAKING OR ENTERING
26-0807070 26-0807070 1955 KEATHLEY DR August 23, 2026 11:30 am DOMESTIC DISTURBANCE
26-0807069 3820 DAVE WARD DR August 23, 2026 11:27 am ATTEMPT TO CONTACT
26-0807067 17 EARL DR August 23, 2026 11:20 am TRESPASSING
26-0807066 26-0807066 1200 COVINGTON WAY August 23, 2026 11:19 am BREAKING OR ENTERING
26-0807064 1525 CLIFTON ST August 23, 2026 11:06 am ATTEMPT TO CONTACT
26-0807063 1101 MARKHAM ST August 23, 2026 11:05 am FOUND PROPERTY
26-0807060 159 LOWER RIDGE RD August 23, 2026 11:03 am SHOTS FIRED
26-0807058 384 HIGHWAY 65 N August 23, 2026 10:59 am ROAD RAGE
26-0807056 855 SALEM RD August 23, 2026 10:46 am ACCIDENT - PRIVATE PROPERTY
26-0807055 26-0807055 1201 OLD MORRILTON HIGHWAY August 23, 2026 10:30 am ATTEMPT TO CONTACT
26-0807050 10 FAIR OAKS DR August 23, 2026 10:06 am HARASSMENT
26-0807047 2 HOGGARD LN August 23, 2026 9:44 am AGENCY ASSIST
26-0807041 299 S DONAGHEY AVE August 23, 2026 9:25 am ATTEMPT TO CONTACT
26-0807040 129 I40EB August 23, 2026 9:17 am RECKLESS DRIVER
26-0807034 314 STURGIS RD August 23, 2026 8:20 am ABANDONED VEHICLE
26-0807032 1116 GUM ST August 23, 2026 7:58 am TRESPASSING
26-0807029 253 ROCKY POINT RD August 23, 2026 7:24 am DISTURBANCE
26-0807027 193 S BROADVIEW August 23, 2026 7:08 am CHECK ON THE WELFARE
26-0807026 26-0807026 2310 SANDERS ST August 23, 2026 6:59 am CHECKING VEHICLE
26-0807021 26-0807021 2270 MEADOWLAKE RD August 23, 2026 5:13 am TRESPASSING
26-0807020 1655 DAVE WARD DR August 23, 2026 5:09 am ATTEMPT TO CONTACT
26-0807019 279 STURGIS RD August 23, 2026 5:03 am CHECKING VEHICLE
26-0807018 1306 S DONAGHEY AVE August 23, 2026 3:57 am ASSIST FIRE
26-0807013 26-0807013 1205 SKYLINE DR August 23, 2026 2:23 am ACCIDENT - PROPERTY DAMAGE
26-0807012 1200 COVINGTON WAY August 23, 2026 2:19 am FIGHT
26-0807009 26-0807009 1115 E OAK ST August 23, 2026 2:00 am MISDEMEANOR WARRANT SERVICE
26-0807000 1200 COVINGTON WAY August 23, 2026 1:14 am LOUD NOISE-MUSIC
26-0806996 955 S GERMAN LN August 23, 2026 1:01 am CHECKING VEHICLE
26-0806995 2500 DAVE WARD DR August 23, 2026 12:56 am CHECKING VEHICLE
26-0806989 899 LOCUST AVE August 23, 2026 12:41 am CHECKING VEHICLE
26-0806986 1105 TRENTON DR August 23, 2026 12:28 am CHECKING VEHICLE
26-0806984 69 VILANCO CUTOFF August 23, 2026 12:14 am BURGLARY
26-0806983 185 BATESVILLE MOUNTAIN RD August 23, 2026 12:10 am DOMESTIC DISTURBANCE
26-0806980 17 EARL DR August 22, 2026 11:54 pm LOUD NOISE-MUSIC
26-0806977 1 SUNNY GAP RD August 22, 2026 11:48 pm PURSUIT
26-0806970 1505 ARDEN LN August 22, 2026 11:36 pm CRIMINAL MISCHIEF
26-0806966 599 CLINTON RD August 22, 2026 11:28 pm ACCIDENT - PERSONAL INJURY
26-0806964 2400 SANDERS ST August 22, 2026 11:21 pm CHECK ON THE WELFARE
26-0806961 26-0806961 1404 CALDWELL ST August 22, 2026 11:13 pm DOMESTIC DISTURBANCE
26-0806959 500 S GERMAN LN August 22, 2026 11:04 pm MISDEMEANOR WARRANT SERVICE
26-0806957 2310 ROBINSON AVE August 22, 2026 10:53 pm CHECKING VEHICLE
26-0806955 1750 VILLAGE COMMONS DR August 22, 2026 10:47 pm LOUD NOISE-MUSIC
26-0806948 10 RUNNING DEER CV August 22, 2026 10:33 pm LOUD NOISE-MUSIC
26-0806939 404 2ND ST August 22, 2026 10:18 pm DOMESTIC DISTURBANCE
26-0806934 12 JERRY ST August 22, 2026 10:10 pm LOUD NOISE-MUSIC
26-0806929 1601 S DONAGHEY AVE August 22, 2026 10:06 pm SUSPICIOUS ACTIVITY
26-0806917 375 E OAK ST August 22, 2026 9:48 pm HARASSMENT
26-0806912 1 LOGGIN LN August 22, 2026 9:43 pm SHOTS FIRED
26-0806904 68 BLACK RD August 22, 2026 9:31 pm ATTEMPT TO CONTACT
26-0806900 375 MONROE ST August 22, 2026 9:25 pm LOUD NOISE-MUSIC
26-0806898 1405 S DONAGHEY AVE August 22, 2026 9:21 pm ATTEMPT TO CONTACT
26-0806896 100 BILL HEGEMAN BLVD August 22, 2026 9:11 pm CIVIL MATTER
26-0806893 1308 HILLCREST DR August 22, 2026 8:43 pm CHECK ON THE WELFARE
26-0806890 245 SCENIC HILL RD August 22, 2026 8:39 pm ACCIDENT - PERSONAL INJURY
26-0806889 26-0806889 620 3RD AVE August 22, 2026 8:31 pm ABUSE
26-0806885 1 BEAVERFORK HEIGHTS RD August 22, 2026 8:18 pm SHOTS FIRED
26-0806882 299 GRANDVIEW HEIGHTS DR August 22, 2026 8:09 pm LOUD NOISE-MUSIC
26-0806881 530 S DONAGHEY AVE August 22, 2026 8:08 pm PROPERTY DAMAGE
26-0806874 1 N CHURCH ST August 22, 2026 7:52 pm RECKLESS DRIVER
26-0806873 710 HARKRIDER ST August 22, 2026 7:52 pm AGENCY ASSIST
26-0806871 1 SUMMIT RD August 22, 2026 7:30 pm SHOTS FIRED
26-0806870 26-0806870 100 BILL HEGEMAN BLVD August 22, 2026 7:28 pm THEFT OF VEHICLE
26-0806869 1199 E DAVE WARD DR August 22, 2026 7:20 pm ACCIDENT - PROPERTY DAMAGE
26-0806868 1105 PRAIRIE ST August 22, 2026 7:13 pm LOST CHILD
26-0806867 1040 CLARENCE DR August 22, 2026 7:12 pm ACCIDENT - PROPERTY DAMAGE
26-0806866 435 EASTERWOOD POINT RD August 22, 2026 7:11 pm CIVIL MATTER
26-0806865 299 GRANDVIEW HEIGHTS DR August 22, 2026 7:10 pm LOUD NOISE-MUSIC
26-0806864 1915 ERBACH ST August 22, 2026 6:56 pm SUPPLEMENT REPORT CALL
26-0806860 204 BURGESS LN August 22, 2026 6:30 pm ATTEMPT TO CONTACT
26-0806859 1325 ROBINS ST August 22, 2026 6:21 pm UNKNOWN TROUBLE
26-0806858 829 OAK ST August 22, 2026 6:20 pm RECKLESS DRIVER
26-0806854 501 ELSINGER BLVD August 22, 2026 6:01 pm RECKLESS DRIVER
26-0806853 1620 MIDDLE RD August 22, 2026 5:48 pm CHECK ON THE WELFARE
26-0806852 23 BLAIR DR August 22, 2026 5:43 pm DISTURBANCE
26-0806850 2850 COLLEGE AVE August 22, 2026 5:37 pm LOST PROPERTY
26-0806849 801 LOCUST AVE August 22, 2026 5:30 pm FELONY WARRANT SERVICE
26-0806846 1700 TYLER ST August 22, 2026 4:53 pm ACCIDENT - PROPERTY DAMAGE
26-0806845 26-0806845 3430 IRBY DR August 22, 2026 4:43 pm TERRORISTIC THREATENING
26-0806844 605 1ST AVE August 22, 2026 4:40 pm ASSIST FIRE
26-0806841 5 RUNNING DEER CV August 22, 2026 4:27 pm ASSIST FIRE
26-0806839 132 I40EB August 22, 2026 4:16 pm RECKLESS DRIVER
26-0806837 1001 MCNUTT RD August 22, 2026 4:11 pm LOST CHILD
26-0806836 2125 HARKRIDER ST August 22, 2026 4:07 pm ENDANGERING WELFARE OF MINOR
26-0806831 26-0806831 501 ELSINGER BLVD August 22, 2026 3:36 pm SHOPLIFTING
26-0806828 127 BALLARD RD August 22, 2026 3:27 pm ATTEMPT TO CONTACT
26-0806827 801 LOCUST AVE August 22, 2026 3:26 pm FELONY WARRANT SERVICE
26-0806826 2110 OLD MORRILTON HIGHWAY August 22, 2026 3:26 pm CHECK ON THE WELFARE
26-0806825 700 SALEM RD August 22, 2026 3:22 pm RECKLESS DRIVER
26-0806824 499 DONAGHEY AVE August 22, 2026 3:17 pm FLOCK ALERT
26-0806818 1225 RAYMOND DR August 22, 2026 2:47 pm ATTEMPT TO CONTACT
26-0806812 620 INGRAM VILLAGE DR August 22, 2026 2:31 pm ATTEMPT TO CONTACT
26-0806811 1045 ROCKWELL DR August 22, 2026 2:31 pm CHECK ON THE WELFARE
26-0806809 916 E OAK ST August 22, 2026 2:23 pm ACCIDENT - PRIVATE PROPERTY
26-0806808 3040 CRAWFORD LOOP August 22, 2026 2:18 pm ACCIDENT - PROPERTY DAMAGE
26-0806801 618 HIGHWAY 64 E August 22, 2026 2:04 pm ACCIDENT - PROPERTY DAMAGE
26-0806800 135 I40EB August 22, 2026 2:00 pm RECKLESS DRIVER
26-0806799 186 HIGHWAY 285 N August 22, 2026 1:53 pm RECKLESS DRIVER
26-0806798 88 FLAG POND RD August 22, 2026 1:52 pm DOMESTIC DISTURBANCE
26-0806797 700 CRAIN DR August 22, 2026 1:50 pm RECKLESS DRIVER
26-0806796 2820 RAZORBACK DR August 22, 2026 1:48 pm CRIMINAL MISCHIEF
26-0806793 26-0806793 500 ELSINGER BLVD August 22, 2026 1:28 pm SHOPLIFTING
26-0806791 3315 PEBBLE BEACH DR August 22, 2026 1:19 pm SUSPICIOUS ACTIVITY
26-0806787 44 N BROADVIEW August 22, 2026 1:02 pm DOMESTIC DISTURBANCE
26-0806786 699 DAVE WARD DR August 22, 2026 1:01 pm STALLED VEHICLE
26-0806785 600 EXPO BLVD August 22, 2026 12:44 pm THEFT OF PROPERTY
26-0806784 156 WILLIAMS RANCH RD August 22, 2026 12:37 pm CIVIL MATTER
26-0806781 11 JONES RD August 22, 2026 12:17 pm BURGLARY
26-0806780 1199 E DAVE WARD DR August 22, 2026 12:14 pm ACCIDENT - HIT AND RUN
26-0806779 28 WEST ST August 22, 2026 12:13 pm ATTEMPT TO CONTACT
26-0806778 2302 COLLEGE AVE August 22, 2026 12:12 pm CHECK ON THE WELFARE
26-0806777 1465 STORIE DR August 22, 2026 12:12 pm ACCIDENT - PRIVATE PROPERTY
26-0806774 1 ACKLIN GAP RD August 22, 2026 12:01 pm TRAFFIC PROBLEM-CONTROL
26-0806773 26-0806773 5305 TRINITY CROSSING DR August 22, 2026 11:58 am THEFT OF PROPERTY
26-0806772 1775 WHITTEN RD August 22, 2026 11:51 am TERRORISTIC THREATENING
26-0806769 555 COUNTRY CLUB RD August 22, 2026 11:41 am ORDINANCE VIOLATION
26-0806768 1620 MIDDLE RD August 22, 2026 11:34 am LOST CHILD
26-0806767 1363 MITCHELL ST August 22, 2026 11:25 am ACCIDENT - PRIVATE PROPERTY
26-0806766 26-0806766 1423 BEAN ST August 22, 2026 11:18 am LOST-STOLEN LICENSE PLATE
26-0806765 1325 OLD MORRILTON HIGHWAY August 22, 2026 11:17 am CHECKING VEHICLE
26-0806764 26-0806764 1405 MONTANA DR August 22, 2026 11:11 am THEFT OF PROPERTY
26-0806763 1900 HOGAN LN August 22, 2026 11:07 am CHECK ON THE WELFARE
26-0806762 26-0806762 1465 STORIE DR August 22, 2026 11:03 am HARASSMENT
26-0806761 32 BRIERWOOD CIR August 22, 2026 10:57 am CHECK ON THE WELFARE
26-0806758 283 ADKISSON RD August 22, 2026 10:41 am CIVIL MATTER
26-0806757 169 S COKER RD August 22, 2026 10:39 am ATTEMPT TO CONTACT
26-0806753 44 RAINWATER CV August 22, 2026 10:20 am ASSIST FIRE
26-0806751 1158 MITCHELL ST August 22, 2026 10:12 am ATTEMPT TO CONTACT
26-0806748 1105 PRAIRIE ST August 22, 2026 10:00 am SUPPLEMENT REPORT CALL
26-0806746 43 DAM RD August 22, 2026 9:50 am CRIMINAL MISCHIEF
26-0806745 704 HIGHWAY 287 August 22, 2026 9:38 am ATTEMPT TO CONTACT
26-0806743 19 FREDRICK DR August 22, 2026 9:32 am ATTEMPT TO CONTACT
26-0806742 355 LEDGELAWN DR August 22, 2026 9:15 am UNKNOWN TROUBLE
26-0806739 29 LIBERTY CREEK RD August 22, 2026 9:04 am ATTEMPT TO CONTACT
26-0806737 1105 PRAIRIE ST August 22, 2026 8:56 am ATTEMPT TO CONTACT
26-0806735 236 SHAW BRIDGE RD August 22, 2026 8:53 am ACCIDENT - PERSONAL INJURY
26-0806731 1090 SKYLINE DR August 22, 2026 8:36 am CIVIL STAND BY
26-0806725 400 SALEM RD August 22, 2026 8:07 am TRAFFIC PROBLEM-CONTROL
26-0806723 2 STARR LN August 22, 2026 7:41 am ASSIST FIRE
26-0806719 1350 FRESCA LN August 22, 2026 6:55 am AGENCY ASSIST
26-0806717 29 LIBERTY CREEK RD August 22, 2026 6:48 am ATTEMPT TO CONTACT
26-0806715 3335 PEBBLE BEACH DR August 22, 2026 5:33 am 911 HANGUP CALL
26-0806713 1900 TYLER ST August 22, 2026 4:59 am CHECKING VEHICLE
26-0806712 245 OAK ST August 22, 2026 4:51 am CHECKING PERSON
26-0806711 275 SALEM RD August 22, 2026 4:12 am CHECK ON THE WELFARE
26-0806708 2525 GRUMMER LN August 22, 2026 3:35 am CHECK ON THE WELFARE
26-0806707 408 HIGHWAY 65 N August 22, 2026 3:33 am CHECKING BUILDING
26-0806698 2195 DAVE WARD DR August 22, 2026 1:58 am RECKLESS DRIVER
26-0806696 1010 MAIN ST August 22, 2026 1:28 am FIGHT
26-0806695 307 FARRIS RD August 22, 2026 1:25 am LOUD NOISE-MUSIC
26-0806694 1630 DUKE ST August 22, 2026 1:21 am LOUD NOISE-MUSIC
26-0806689 703 MAIN ST August 22, 2026 1:05 am CHECKING BUILDING
26-0806687 801 LOCUST AVE August 22, 2026 12:53 am ATTEMPT TO CONTACT
26-0806686 601 ELSINGER BLVD August 22, 2026 12:49 am CHECKING VEHICLE
26-0806684 1370 CHAMPIONS DR August 22, 2026 12:39 am SUSPICIOUS ACTIVITY
26-0806681 1622 WESTLAKE DR August 22, 2026 12:16 am DOMESTIC DISTURBANCE
26-0806679 430 DONAGHEY AVE August 22, 2026 12:13 am LOUD NOISE-MUSIC